Time,TemperatureF,DewpointF,PressureIn,WindDirection,WindDirectionDegrees,WindSpeedMPH,WindSpeedGustMPH,Humidity,HourlyPrecipIn,Conditions,Clouds,dailyrainin,SoftwareType,DateUTC
2013-05-03 00:01:00,66.4,57.1,30.15,SW,219,0.0,9.0,72,0.00,,,0.00,Wunderground v.1.15,2013-05-03 04:01:00,
2013-05-03 00:02:00,66.3,57.0,30.15,SW,219,0.0,9.0,72,0.00,,,0.00,Wunderground v.1.15,2013-05-03 04:02:00,
2013-05-03 00:03:00,66.3,57.0,30.16,SW,219,0.0,9.0,72,0.00,,,0.00,Wunderground v.1.15,2013-05-03 04:03:00,
2013-05-03 00:06:00,66.1,57.2,30.16,SW,219,0.0,9.0,73,0.00,,,0.00,Wunderground v.1.15,2013-05-03 04:06:00,
2013-05-03 00:07:00,66.1,57.2,30.16,SW,219,0.0,9.0,73,0.00,,,0.00,Wunderground v.1.15,2013-05-03 04:07:00,
2013-05-03 00:10:00,65.9,57.0,30.15,SW,219,0.0,9.0,73,0.00,,,0.00,Wunderground v.1.15,2013-05-03 04:10:00,
2013-05-03 00:12:00,65.8,57.3,30.16,SW,219,0.0,9.0,74,0.00,,,0.00,Wunderground v.1.15,2013-05-03 04:12:00,
2013-05-03 00:14:00,65.7,57.2,30.16,SW,219,0.0,9.0,74,0.00,,,0.00,Wunderground v.1.15,2013-05-03 04:14:00,
2013-05-03 00:17:00,65.5,57.4,30.16,SW,219,0.0,9.0,75,0.00,,,0.00,Wunderground v.1.15,2013-05-03 04:17:00,
2013-05-03 00:19:00,65.3,57.2,30.16,SW,219,0.0,9.0,75,0.00,,,0.00,Wunderground v.1.15,2013-05-03 04:19:00,
2013-05-03 00:21:00,65.2,57.1,30.16,SW,219,0.0,9.0,75,0.00,,,0.00,Wunderground v.1.15,2013-05-03 04:21:00,
2013-05-03 00:23:00,65.0,57.2,30.16,SW,219,0.0,9.0,76,0.00,,,0.00,Wunderground v.1.15,2013-05-03 04:23:00,
2013-05-03 00:24:00,65.0,57.2,30.16,SW,219,0.0,9.0,76,0.00,,,0.00,Wunderground v.1.15,2013-05-03 04:24:00,
2013-05-03 00:25:00,64.9,57.2,30.16,SW,219,0.0,9.0,76,0.00,,,0.00,Wunderground v.1.15,2013-05-03 04:25:00,
2013-05-03 00:28:00,64.7,57.0,30.15,East,93,0.0,9.0,76,0.00,,,0.00,Wunderground v.1.15,2013-05-03 04:28:00,
2013-05-03 00:29:00,64.7,57.0,30.16,East,93,0.0,9.0,76,0.00,,,0.00,Wunderground v.1.15,2013-05-03 04:29:00,
2013-05-03 00:32:00,64.5,56.8,30.16,East,93,0.0,9.0,76,0.00,,,0.00,Wunderground v.1.15,2013-05-03 04:32:00,
2013-05-03 00:34:00,64.4,57.0,30.16,SSE,157,0.0,9.0,77,0.00,,,0.00,Wunderground v.1.15,2013-05-03 04:34:00,
2013-05-03 00:35:00,64.3,56.9,30.16,SSE,157,0.0,9.0,77,0.00,,,0.00,Wunderground v.1.15,2013-05-03 04:35:00,
2013-05-03 00:37:00,64.2,56.8,30.16,SSE,163,0.0,9.0,77,0.00,,,0.00,Wunderground v.1.15,2013-05-03 04:37:00,
2013-05-03 00:40:00,64.1,56.7,30.16,SSE,163,0.0,9.0,77,0.00,,,0.00,Wunderground v.1.15,2013-05-03 04:40:00,
2013-05-03 00:41:00,64.0,56.6,30.16,SSE,163,0.0,9.0,77,0.00,,,0.00,Wunderground v.1.15,2013-05-03 04:41:00,
2013-05-03 00:46:00,63.8,56.4,30.16,SSE,163,0.0,9.0,77,0.00,,,0.00,Wunderground v.1.15,2013-05-03 04:46:00,
2013-05-03 00:47:00,63.7,56.7,30.16,SSE,163,0.0,9.0,78,0.00,,,0.00,Wunderground v.1.15,2013-05-03 04:47:00,
2013-05-03 00:48:00,63.7,56.7,30.16,SSE,163,0.0,9.0,78,0.00,,,0.00,Wunderground v.1.15,2013-05-03 04:48:00,
2013-05-03 00:49:00,63.7,56.7,30.16,SSE,163,0.0,9.0,78,0.00,,,0.00,Wunderground v.1.15,2013-05-03 04:49:00,
2013-05-03 00:51:00,63.6,56.6,30.16,SSE,163,0.0,9.0,78,0.00,,,0.00,Wunderground v.1.15,2013-05-03 04:51:00,
2013-05-03 00:53:00,63.5,56.9,30.16,SSE,163,0.0,9.0,79,0.00,,,0.00,Wunderground v.1.15,2013-05-03 04:53:00,
2013-05-03 00:54:00,63.4,56.8,30.16,SSE,163,0.0,9.0,79,0.00,,,0.00,Wunderground v.1.15,2013-05-03 04:54:00,
2013-05-03 00:58:00,63.3,56.7,30.16,SSE,167,0.0,9.0,79,0.00,,,0.00,Wunderground v.1.15,2013-05-03 04:58:00,
2013-05-03 00:59:00,63.3,56.7,30.16,SW,223,0.0,9.0,79,0.00,,,0.00,Wunderground v.1.15,2013-05-03 04:59:00,
2013-05-03 01:01:00,63.3,56.3,30.16,South,184,0.0,9.0,78,0.00,,,0.00,Wunderground v.1.15,2013-05-03 05:01:00,
2013-05-03 01:03:00,63.5,56.5,30.16,SSW,199,0.0,9.0,78,0.00,,,0.00,Wunderground v.1.15,2013-05-03 05:03:00,
2013-05-03 01:05:00,63.7,56.4,30.16,SSW,200,1.0,9.0,77,0.00,,,0.00,Wunderground v.1.15,2013-05-03 05:05:00,
2013-05-03 01:07:00,63.8,56.4,30.16,South,187,1.0,9.0,77,0.00,,,0.00,Wunderground v.1.15,2013-05-03 05:07:00,
2013-05-03 01:09:00,64.0,56.3,30.16,South,184,1.0,9.0,76,0.00,,,0.00,Wunderground v.1.15,2013-05-03 05:09:00,
2013-05-03 01:11:00,64.0,56.3,30.16,SSW,200,1.0,1.0,76,0.00,,,0.00,Wunderground v.1.15,2013-05-03 05:11:00,
2013-05-03 01:13:00,64.2,56.5,30.16,SW,217,1.0,9.0,76,0.00,,,0.00,Wunderground v.1.15,2013-05-03 05:13:00,
2013-05-03 01:14:00,64.2,56.1,30.16,SSW,206,1.0,9.0,75,0.00,,,0.00,Wunderground v.1.15,2013-05-03 05:14:00,
2013-05-03 01:19:00,64.5,56.4,30.16,SW,215,1.0,9.0,75,0.00,,,0.00,Wunderground v.1.15,2013-05-03 05:19:00,
2013-05-03 01:21:00,64.6,56.5,30.16,SSW,199,1.0,1.0,75,0.00,,,0.00,Wunderground v.1.15,2013-05-03 05:21:00,
2013-05-03 01:22:00,64.6,56.5,30.16,South,186,1.0,3.0,75,0.00,,,0.00,Wunderground v.1.15,2013-05-03 05:22:00,
2013-05-03 01:24:00,64.5,56.4,30.15,WSW,245,1.0,9.0,75,0.00,,,0.00,Wunderground v.1.15,2013-05-03 05:24:00,
2013-05-03 01:29:00,64.4,56.3,30.15,SSW,209,0.0,9.0,75,0.00,,,0.00,Wunderground v.1.15,2013-05-03 05:29:00,
2013-05-03 01:30:00,64.3,56.2,30.15,SSW,213,0.0,9.0,75,0.00,,,0.00,Wunderground v.1.15,2013-05-03 05:30:00,
2013-05-03 01:31:00,64.3,56.2,30.15,South,178,0.0,9.0,75,0.00,,,0.00,Wunderground v.1.15,2013-05-03 05:31:00,
2013-05-03 01:34:00,64.3,56.2,30.15,SSE,155,0.0,9.0,75,0.00,,,0.00,Wunderground v.1.15,2013-05-03 05:34:00,
2013-05-03 01:37:00,64.2,56.1,30.15,SSE,156,0.0,9.0,75,0.00,,,0.00,Wunderground v.1.15,2013-05-03 05:37:00,
2013-05-03 01:38:00,64.2,56.1,30.15,SSE,157,0.0,9.0,75,0.00,,,0.00,Wunderground v.1.15,2013-05-03 05:38:00,
2013-05-03 01:39:00,64.2,56.1,30.15,SSE,157,0.0,9.0,75,0.00,,,0.00,Wunderground v.1.15,2013-05-03 05:39:00,
2013-05-03 01:42:00,64.1,56.4,30.15,SSW,212,0.0,9.0,76,0.00,,,0.00,Wunderground v.1.15,2013-05-03 05:42:00,
2013-05-03 01:44:00,63.9,56.2,30.15,SSW,212,0.0,9.0,76,0.00,,,0.00,Wunderground v.1.15,2013-05-03 05:44:00,
2013-05-03 01:45:00,63.8,56.1,30.15,SSW,213,0.0,9.0,76,0.00,,,0.00,Wunderground v.1.15,2013-05-03 05:45:00,
2013-05-03 01:46:00,63.8,56.1,30.15,SSW,212,0.0,9.0,76,0.00,,,0.00,Wunderground v.1.15,2013-05-03 05:46:00,
2013-05-03 01:51:00,63.4,56.1,30.15,SSW,213,0.0,9.0,77,0.00,,,0.00,Wunderground v.1.15,2013-05-03 05:51:00,
2013-05-03 01:53:00,63.2,55.9,30.15,SSW,213,0.0,9.0,77,0.00,,,0.00,Wunderground v.1.15,2013-05-03 05:53:00,
2013-05-03 01:54:00,63.2,55.9,30.15,SSW,212,0.0,9.0,77,0.00,,,0.00,Wunderground v.1.15,2013-05-03 05:54:00,
2013-05-03 01:58:00,62.8,55.8,30.15,SSW,212,0.0,9.0,78,0.00,,,0.00,Wunderground v.1.15,2013-05-03 05:58:00,
2013-05-03 02:01:00,62.6,55.6,30.15,SSW,213,0.0,9.0,78,0.00,,,0.00,Wunderground v.1.15,2013-05-03 06:01:00,
2013-05-03 02:02:00,62.5,55.5,30.15,SSW,213,0.0,9.0,78,0.00,,,0.00,Wunderground v.1.15,2013-05-03 06:02:00,
2013-05-03 02:03:00,62.4,55.4,30.14,SSW,213,0.0,9.0,78,0.00,,,0.00,Wunderground v.1.15,2013-05-03 06:03:00,
2013-05-03 02:05:00,62.3,55.7,30.15,SSW,213,0.0,9.0,79,0.00,,,0.00,Wunderground v.1.15,2013-05-03 06:05:00,
2013-05-03 02:08:00,62.1,55.5,30.15,SSW,213,0.0,9.0,79,0.00,,,0.00,Wunderground v.1.15,2013-05-03 06:08:00,
2013-05-03 02:10:00,62.0,55.4,30.15,SSW,213,0.0,9.0,79,0.00,,,0.00,Wunderground v.1.15,2013-05-03 06:10:00,
2013-05-03 02:11:00,61.9,55.3,30.15,SSW,213,0.0,9.0,79,0.00,,,0.00,Wunderground v.1.15,2013-05-03 06:11:00,
2013-05-03 02:12:00,61.9,55.3,30.15,SSW,212,0.0,9.0,79,0.00,,,0.00,Wunderground v.1.15,2013-05-03 06:12:00,
2013-05-03 02:15:00,61.9,55.3,30.14,SSW,212,0.0,9.0,79,0.00,,,0.00,Wunderground v.1.15,2013-05-03 06:15:00,
2013-05-03 02:17:00,61.8,55.2,30.14,South,185,0.0,9.0,79,0.00,,,0.00,Wunderground v.1.15,2013-05-03 06:17:00,
2013-05-03 02:18:00,61.9,55.3,30.14,South,184,0.0,9.0,79,0.00,,,0.00,Wunderground v.1.15,2013-05-03 06:18:00,
2013-05-03 02:19:00,61.9,55.3,30.14,South,184,0.0,9.0,79,0.00,,,0.00,Wunderground v.1.15,2013-05-03 06:19:00,
2013-05-03 02:22:00,61.8,55.2,30.14,South,184,0.0,9.0,79,0.00,,,0.00,Wunderground v.1.15,2013-05-03 06:22:00,
2013-05-03 02:23:00,61.8,55.2,30.14,South,184,0.0,9.0,79,0.00,,,0.00,Wunderground v.1.15,2013-05-03 06:23:00,
2013-05-03 02:24:00,61.8,55.2,30.14,South,184,0.0,9.0,79,0.00,,,0.00,Wunderground v.1.15,2013-05-03 06:24:00,
2013-05-03 02:26:00,61.8,55.2,30.14,South,184,0.0,9.0,79,0.00,,,0.00,Wunderground v.1.15,2013-05-03 06:26:00,
2013-05-03 02:30:00,61.7,55.1,30.14,South,184,0.0,9.0,79,0.00,,,0.00,Wunderground v.1.15,2013-05-03 06:30:00,
2013-05-03 02:31:00,61.6,55.0,30.14,South,184,0.0,9.0,79,0.00,,,0.00,Wunderground v.1.15,2013-05-03 06:31:00,
2013-05-03 02:32:00,61.6,55.0,30.14,South,184,0.0,9.0,79,0.00,,,0.00,Wunderground v.1.15,2013-05-03 06:32:00,
2013-05-03 02:36:00,61.5,54.9,30.14,South,184,0.0,9.0,79,0.00,,,0.00,Wunderground v.1.15,2013-05-03 06:36:00,
2013-05-03 02:37:00,61.5,54.9,30.14,South,184,0.0,9.0,79,0.00,,,0.00,Wunderground v.1.15,2013-05-03 06:37:00,
2013-05-03 02:39:00,61.5,55.3,30.14,South,184,0.0,9.0,80,0.00,,,0.00,Wunderground v.1.15,2013-05-03 06:39:00,
2013-05-03 02:42:00,61.4,55.2,30.14,South,184,0.0,9.0,80,0.00,,,0.00,Wunderground v.1.15,2013-05-03 06:42:00,
2013-05-03 02:45:00,61.3,55.1,30.13,South,184,0.0,9.0,80,0.00,,,0.00,Wunderground v.1.15,2013-05-03 06:45:00,
2013-05-03 02:47:00,61.3,55.1,30.14,South,184,0.0,9.0,80,0.00,,,0.00,Wunderground v.1.15,2013-05-03 06:47:00,
2013-05-03 02:52:00,61.1,54.9,30.14,South,184,0.0,9.0,80,0.00,,,0.00,Wunderground v.1.15,2013-05-03 06:52:00,
2013-05-03 02:53:00,61.1,54.9,30.13,South,184,0.0,9.0,80,0.00,,,0.00,Wunderground v.1.15,2013-05-03 06:53:00,
2013-05-03 02:54:00,61.0,55.1,30.13,South,184,0.0,9.0,81,0.00,,,0.00,Wunderground v.1.15,2013-05-03 06:54:00,
2013-05-03 02:55:00,61.0,55.1,30.13,South,184,0.0,9.0,81,0.00,,,0.00,Wunderground v.1.15,2013-05-03 06:55:00,
2013-05-03 02:58:00,60.9,55.0,30.13,South,184,0.0,9.0,81,0.00,,,0.00,Wunderground v.1.15,2013-05-03 06:58:00,
2013-05-03 03:01:00,60.8,54.9,30.13,South,184,0.0,9.0,81,0.00,,,0.00,Wunderground v.1.15,2013-05-03 07:01:00,
2013-05-03 03:03:00,60.7,55.2,30.13,South,184,0.0,9.0,82,0.00,,,0.00,Wunderground v.1.15,2013-05-03 07:03:00,
2013-05-03 03:04:00,60.6,55.1,30.13,South,184,0.0,9.0,82,0.00,,,0.00,Wunderground v.1.15,2013-05-03 07:04:00,
2013-05-03 03:06:00,60.5,55.0,30.13,South,184,0.0,9.0,82,0.00,,,0.00,Wunderground v.1.15,2013-05-03 07:06:00,
2013-05-03 03:07:00,60.5,55.0,30.13,South,184,0.0,9.0,82,0.00,,,0.00,Wunderground v.1.15,2013-05-03 07:07:00,
2013-05-03 03:09:00,60.4,54.9,30.13,South,184,0.0,9.0,82,0.00,,,0.00,Wunderground v.1.15,2013-05-03 07:09:00,
2013-05-03 03:12:00,60.2,54.7,30.13,South,184,0.0,9.0,82,0.00,,,0.00,Wunderground v.1.15,2013-05-03 07:12:00,
2013-05-03 03:16:00,60.1,54.6,30.13,South,184,0.0,9.0,82,0.00,,,0.00,Wunderground v.1.15,2013-05-03 07:16:00,
2013-05-03 03:18:00,60.0,54.8,30.13,South,184,0.0,9.0,83,0.00,,,0.00,Wunderground v.1.15,2013-05-03 07:18:00,
2013-05-03 03:21:00,59.9,54.7,30.13,South,184,0.0,9.0,83,0.00,,,0.00,Wunderground v.1.15,2013-05-03 07:21:00,
2013-05-03 03:22:00,59.9,54.7,30.13,South,184,0.0,9.0,83,0.00,,,0.00,Wunderground v.1.15,2013-05-03 07:22:00,
2013-05-03 03:23:00,59.9,54.7,30.13,South,184,0.0,9.0,83,0.00,,,0.00,Wunderground v.1.15,2013-05-03 07:23:00,
2013-05-03 03:24:00,59.8,54.6,30.13,South,184,0.0,9.0,83,0.00,,,0.00,Wunderground v.1.15,2013-05-03 07:24:00,
2013-05-03 03:27:00,59.8,54.6,30.13,South,184,0.0,9.0,83,0.00,,,0.00,Wunderground v.1.15,2013-05-03 07:27:00,
2013-05-03 03:29:00,59.8,54.6,30.13,South,184,0.0,9.0,83,0.00,,,0.00,Wunderground v.1.15,2013-05-03 07:29:00,
2013-05-03 03:31:00,59.7,54.5,30.13,South,184,0.0,9.0,83,0.00,,,0.00,Wunderground v.1.15,2013-05-03 07:31:00,
2013-05-03 03:32:00,59.7,54.5,30.13,South,184,0.0,9.0,83,0.00,,,0.00,Wunderground v.1.15,2013-05-03 07:32:00,
2013-05-03 03:35:00,59.7,54.5,30.13,South,184,0.0,9.0,83,0.00,,,0.00,Wunderground v.1.15,2013-05-03 07:35:00,
2013-05-03 03:37:00,59.6,54.4,30.13,South,184,0.0,9.0,83,0.00,,,0.00,Wunderground v.1.15,2013-05-03 07:37:00,
2013-05-03 03:39:00,59.6,54.4,30.13,South,184,0.0,9.0,83,0.00,,,0.00,Wunderground v.1.15,2013-05-03 07:39:00,
2013-05-03 03:40:00,59.6,54.4,30.13,South,184,0.0,9.0,83,0.00,,,0.00,Wunderground v.1.15,2013-05-03 07:40:00,
2013-05-03 03:42:00,59.6,54.4,30.13,South,184,0.0,9.0,83,0.00,,,0.00,Wunderground v.1.15,2013-05-03 07:42:00,
2013-05-03 03:43:00,59.5,54.3,30.13,South,184,0.0,9.0,83,0.00,,,0.00,Wunderground v.1.15,2013-05-03 07:43:00,
2013-05-03 03:47:00,59.5,54.3,30.13,South,184,0.0,9.0,83,0.00,,,0.00,Wunderground v.1.15,2013-05-03 07:47:00,
2013-05-03 03:48:00,59.5,54.3,30.13,South,184,0.0,9.0,83,0.00,,,0.00,Wunderground v.1.15,2013-05-03 07:48:00,
2013-05-03 03:49:00,59.4,54.2,30.13,South,184,0.0,9.0,83,0.00,,,0.00,Wunderground v.1.15,2013-05-03 07:49:00,
2013-05-03 03:51:00,59.5,54.3,30.13,South,184,0.0,9.0,83,0.00,,,0.00,Wunderground v.1.15,2013-05-03 07:51:00,
2013-05-03 03:54:00,59.5,54.3,30.13,South,184,0.0,9.0,83,0.00,,,0.00,Wunderground v.1.15,2013-05-03 07:54:00,
2013-05-03 03:55:00,59.5,54.3,30.13,South,184,0.0,9.0,83,0.00,,,0.00,Wunderground v.1.15,2013-05-03 07:55:00,
2013-05-03 04:01:00,59.6,54.4,30.13,South,171,0.0,9.0,83,0.00,,,0.00,Wunderground v.1.15,2013-05-03 08:01:00,
2013-05-03 04:03:00,59.6,54.4,30.13,South,171,0.0,9.0,83,0.00,,,0.00,Wunderground v.1.15,2013-05-03 08:03:00,
2013-05-03 04:04:00,59.6,54.4,30.13,South,171,0.0,9.0,83,0.00,,,0.00,Wunderground v.1.15,2013-05-03 08:04:00,
2013-05-03 04:06:00,59.6,54.4,30.13,South,171,0.0,9.0,83,0.00,,,0.00,Wunderground v.1.15,2013-05-03 08:06:00,
2013-05-03 04:10:00,59.6,54.4,30.13,South,171,0.0,9.0,83,0.00,,,0.00,Wunderground v.1.15,2013-05-03 08:10:00,
2013-05-03 04:11:00,59.5,54.3,30.13,South,171,0.0,9.0,83,0.00,,,0.00,Wunderground v.1.15,2013-05-03 08:11:00,
2013-05-03 04:13:00,59.5,54.3,30.13,South,171,0.0,9.0,83,0.00,,,0.00,Wunderground v.1.15,2013-05-03 08:13:00,
2013-05-03 04:14:00,59.5,54.3,30.13,South,171,0.0,9.0,83,0.00,,,0.00,Wunderground v.1.15,2013-05-03 08:14:00,
2013-05-03 04:16:00,59.5,54.3,30.13,South,171,0.0,9.0,83,0.00,,,0.00,Wunderground v.1.15,2013-05-03 08:16:00,
2013-05-03 04:17:00,59.4,54.2,30.13,South,171,0.0,9.0,83,0.00,,,0.00,Wunderground v.1.15,2013-05-03 08:17:00,
2013-05-03 04:21:00,59.2,54.0,30.13,South,171,0.0,9.0,83,0.00,,,0.00,Wunderground v.1.15,2013-05-03 08:21:00,
2013-05-03 04:23:00,59.1,53.9,30.13,South,171,0.0,9.0,83,0.00,,,0.00,Wunderground v.1.15,2013-05-03 08:23:00,
2013-05-03 04:25:00,59.0,53.8,30.13,South,171,0.0,9.0,83,0.00,,,0.00,Wunderground v.1.15,2013-05-03 08:25:00,
2013-05-03 04:27:00,58.9,54.1,30.13,South,171,0.0,9.0,84,0.00,,,0.00,Wunderground v.1.15,2013-05-03 08:27:00,
2013-05-03 04:28:00,58.9,53.7,30.13,South,171,0.0,9.0,83,0.00,,,0.00,Wunderground v.1.15,2013-05-03 08:28:00,
2013-05-03 04:29:00,58.8,53.6,30.13,South,171,0.0,9.0,83,0.00,,,0.00,Wunderground v.1.15,2013-05-03 08:29:00,
2013-05-03 04:30:00,58.8,53.6,30.13,South,171,0.0,9.0,83,0.00,,,0.00,Wunderground v.1.15,2013-05-03 08:30:00,
2013-05-03 04:33:00,58.6,53.5,30.13,South,171,0.0,9.0,83,0.00,,,0.00,Wunderground v.1.15,2013-05-03 08:33:00,
2013-05-03 04:35:00,58.6,53.5,30.13,South,171,0.0,9.0,83,0.00,,,0.00,Wunderground v.1.15,2013-05-03 08:35:00,
2013-05-03 04:36:00,58.6,53.5,30.13,South,171,0.0,9.0,83,0.00,,,0.00,Wunderground v.1.15,2013-05-03 08:36:00,
2013-05-03 04:41:00,58.5,53.7,30.13,South,171,0.0,9.0,84,0.00,,,0.00,Wunderground v.1.15,2013-05-03 08:41:00,
2013-05-03 04:42:00,58.4,53.6,30.13,South,171,0.0,9.0,84,0.00,,,0.00,Wunderground v.1.15,2013-05-03 08:42:00,
2013-05-03 04:43:00,58.4,53.6,30.13,South,171,0.0,9.0,84,0.00,,,0.00,Wunderground v.1.15,2013-05-03 08:43:00,
2013-05-03 04:46:00,58.4,53.6,30.13,South,171,0.0,9.0,84,0.00,,,0.00,Wunderground v.1.15,2013-05-03 08:46:00,
2013-05-03 04:47:00,58.4,53.6,30.13,South,171,0.0,9.0,84,0.00,,,0.00,Wunderground v.1.15,2013-05-03 08:47:00,
2013-05-03 04:49:00,58.4,53.9,30.13,South,171,0.0,9.0,85,0.00,,,0.00,Wunderground v.1.15,2013-05-03 08:49:00,
2013-05-03 04:50:00,58.4,53.9,30.13,South,171,0.0,9.0,85,0.00,,,0.00,Wunderground v.1.15,2013-05-03 08:50:00,
2013-05-03 04:51:00,58.4,53.9,30.13,South,171,0.0,9.0,85,0.00,,,0.00,Wunderground v.1.15,2013-05-03 08:51:00,
2013-05-03 04:53:00,58.3,53.5,30.13,South,171,0.0,9.0,84,0.00,,,0.00,Wunderground v.1.15,2013-05-03 08:53:00,
2013-05-03 04:55:00,58.3,53.5,30.13,South,171,0.0,9.0,84,0.00,,,0.00,Wunderground v.1.15,2013-05-03 08:55:00,
2013-05-03 04:56:00,58.3,53.5,30.13,South,171,0.0,9.0,84,0.00,,,0.00,Wunderground v.1.15,2013-05-03 08:56:00,
2013-05-03 05:01:00,58.3,53.5,30.13,South,171,0.0,9.0,84,0.00,,,0.00,Wunderground v.1.15,2013-05-03 09:01:00,
2013-05-03 05:03:00,58.3,53.5,30.13,South,171,0.0,9.0,84,0.00,,,0.00,Wunderground v.1.15,2013-05-03 09:03:00,
2013-05-03 05:04:00,58.4,53.6,30.13,South,171,0.0,9.0,84,0.00,,,0.00,Wunderground v.1.15,2013-05-03 09:04:00,
2013-05-03 05:06:00,58.4,53.6,30.13,South,171,0.0,9.0,84,0.00,,,0.00,Wunderground v.1.15,2013-05-03 09:06:00,
2013-05-03 05:07:00,58.3,53.5,30.13,South,171,0.0,9.0,84,0.00,,,0.00,Wunderground v.1.15,2013-05-03 09:07:00,
2013-05-03 05:08:00,58.3,53.5,30.13,South,171,0.0,9.0,84,0.00,,,0.00,Wunderground v.1.15,2013-05-03 09:08:00,
2013-05-03 05:10:00,58.3,53.5,30.13,South,171,0.0,9.0,84,0.00,,,0.00,Wunderground v.1.15,2013-05-03 09:10:00,
2013-05-03 05:11:00,58.3,53.5,30.13,South,171,0.0,9.0,84,0.00,,,0.00,Wunderground v.1.15,2013-05-03 09:11:00,
2013-05-03 05:13:00,58.2,53.4,30.13,South,171,0.0,9.0,84,0.00,,,0.00,Wunderground v.1.15,2013-05-03 09:13:00,
2013-05-03 05:15:00,58.1,53.6,30.13,South,171,0.0,9.0,85,0.00,,,0.00,Wunderground v.1.15,2013-05-03 09:15:00,
2013-05-03 05:16:00,58.1,53.6,30.13,South,171,0.0,9.0,85,0.00,,,0.00,Wunderground v.1.15,2013-05-03 09:16:00,
2013-05-03 05:17:00,58.1,53.6,30.13,South,171,0.0,9.0,85,0.00,,,0.00,Wunderground v.1.15,2013-05-03 09:17:00,
2013-05-03 05:18:00,58.0,53.5,30.13,South,171,0.0,9.0,85,0.00,,,0.00,Wunderground v.1.15,2013-05-03 09:18:00,
2013-05-03 05:22:00,57.9,53.4,30.13,South,171,0.0,9.0,85,0.00,,,0.00,Wunderground v.1.15,2013-05-03 09:22:00,
2013-05-03 05:23:00,57.8,53.3,30.13,South,171,0.0,9.0,85,0.00,,,0.00,Wunderground v.1.15,2013-05-03 09:23:00,
2013-05-03 05:24:00,57.8,53.3,30.13,South,171,0.0,9.0,85,0.00,,,0.00,Wunderground v.1.15,2013-05-03 09:24:00,
2013-05-03 05:25:00,57.7,53.2,30.13,South,171,0.0,9.0,85,0.00,,,0.00,Wunderground v.1.15,2013-05-03 09:25:00,
2013-05-03 05:28:00,57.6,53.4,30.13,South,171,0.0,9.0,86,0.00,,,0.00,Wunderground v.1.15,2013-05-03 09:28:00,
2013-05-03 05:30:00,57.6,53.4,30.13,South,171,0.0,9.0,86,0.00,,,0.00,Wunderground v.1.15,2013-05-03 09:30:00,
2013-05-03 05:31:00,57.5,53.3,30.13,South,171,0.0,9.0,86,0.00,,,0.00,Wunderground v.1.15,2013-05-03 09:31:00,
2013-05-03 05:32:00,57.5,53.3,30.13,South,171,0.0,9.0,86,0.00,,,0.00,Wunderground v.1.15,2013-05-03 09:32:00,
2013-05-03 05:34:00,57.4,53.2,30.13,South,171,0.0,9.0,86,0.00,,,0.00,Wunderground v.1.15,2013-05-03 09:34:00,
2013-05-03 05:35:00,57.4,53.2,30.13,South,171,0.0,9.0,86,0.00,,,0.00,Wunderground v.1.15,2013-05-03 09:35:00,
2013-05-03 05:37:00,57.3,53.1,30.13,South,171,0.0,9.0,86,0.00,,,0.00,Wunderground v.1.15,2013-05-03 09:37:00,
2013-05-03 05:38:00,57.3,53.1,30.13,South,171,0.0,9.0,86,0.00,,,0.00,Wunderground v.1.15,2013-05-03 09:38:00,
2013-05-03 05:39:00,57.3,53.1,30.13,South,171,0.0,9.0,86,0.00,,,0.00,Wunderground v.1.15,2013-05-03 09:39:00,
2013-05-03 05:40:00,57.2,53.4,30.13,South,171,0.0,9.0,87,0.00,,,0.00,Wunderground v.1.15,2013-05-03 09:40:00,
2013-05-03 05:44:00,57.1,53.3,30.13,South,171,0.0,9.0,87,0.00,,,0.00,Wunderground v.1.15,2013-05-03 09:44:00,
2013-05-03 05:46:00,57.0,53.2,30.13,South,171,0.0,9.0,87,0.00,,,0.00,Wunderground v.1.15,2013-05-03 09:46:00,
2013-05-03 05:48:00,56.9,53.1,30.14,South,171,0.0,9.0,87,0.00,,,0.00,Wunderground v.1.15,2013-05-03 09:48:00,
2013-05-03 05:50:00,56.8,53.0,30.14,South,171,0.0,9.0,87,0.00,,,0.00,Wunderground v.1.15,2013-05-03 09:50:00,
2013-05-03 05:52:00,56.7,52.9,30.14,South,171,0.0,9.0,87,0.00,,,0.00,Wunderground v.1.15,2013-05-03 09:52:00,
2013-05-03 05:53:00,56.6,53.1,30.13,South,171,0.0,9.0,88,0.00,,,0.00,Wunderground v.1.15,2013-05-03 09:53:00,
2013-05-03 05:55:00,56.6,53.1,30.13,South,171,0.0,9.0,88,0.00,,,0.00,Wunderground v.1.15,2013-05-03 09:55:00,
2013-05-03 05:56:00,56.6,53.1,30.14,South,171,0.0,9.0,88,0.00,,,0.00,Wunderground v.1.15,2013-05-03 09:56:00,
2013-05-03 05:58:00,56.5,53.0,30.13,South,171,0.0,9.0,88,0.00,,,0.00,Wunderground v.1.15,2013-05-03 09:58:00,
2013-05-03 06:01:00,56.5,53.0,30.13,South,171,0.0,9.0,88,0.00,,,0.00,Wunderground v.1.15,2013-05-03 10:01:00,
2013-05-03 06:02:00,56.5,53.0,30.13,South,171,0.0,9.0,88,0.00,,,0.00,Wunderground v.1.15,2013-05-03 10:02:00,
2013-05-03 06:06:00,56.4,52.9,30.13,South,171,0.0,9.0,88,0.00,,,0.00,Wunderground v.1.15,2013-05-03 10:06:00,
2013-05-03 06:07:00,56.4,52.9,30.13,South,171,0.0,9.0,88,0.00,,,0.00,Wunderground v.1.15,2013-05-03 10:07:00,
2013-05-03 06:08:00,56.4,53.2,30.13,South,171,0.0,9.0,89,0.00,,,0.00,Wunderground v.1.15,2013-05-03 10:08:00,
2013-05-03 06:11:00,56.4,53.2,30.13,South,171,0.0,9.0,89,0.00,,,0.00,Wunderground v.1.15,2013-05-03 10:11:00,
2013-05-03 06:12:00,56.3,53.1,30.13,South,171,0.0,9.0,89,0.00,,,0.00,Wunderground v.1.15,2013-05-03 10:12:00,
2013-05-03 06:14:00,56.3,53.1,30.13,South,171,0.0,9.0,89,0.00,,,0.00,Wunderground v.1.15,2013-05-03 10:14:00,
2013-05-03 06:16:00,56.3,53.1,30.13,South,171,0.0,9.0,89,0.00,,,0.00,Wunderground v.1.15,2013-05-03 10:16:00,
2013-05-03 06:18:00,56.3,53.1,30.13,South,171,0.0,9.0,89,0.00,,,0.00,Wunderground v.1.15,2013-05-03 10:18:00,
2013-05-03 06:19:00,56.3,52.8,30.13,South,171,0.0,9.0,88,0.00,,,0.00,Wunderground v.1.15,2013-05-03 10:19:00,
2013-05-03 06:22:00,56.3,53.1,30.13,South,171,0.0,9.0,89,0.00,,,0.00,Wunderground v.1.15,2013-05-03 10:22:00,
2013-05-03 06:24:00,56.3,53.1,30.13,South,171,0.0,9.0,89,0.00,,,0.00,Wunderground v.1.15,2013-05-03 10:24:00,
2013-05-03 06:25:00,56.2,53.0,30.13,South,171,0.0,9.0,89,0.00,,,0.00,Wunderground v.1.15,2013-05-03 10:25:00,
2013-05-03 06:28:00,56.2,53.0,30.13,South,171,0.0,9.0,89,0.00,,,0.00,Wunderground v.1.15,2013-05-03 10:28:00,
2013-05-03 06:29:00,56.2,53.0,30.13,South,171,0.0,9.0,89,0.00,,,0.00,Wunderground v.1.15,2013-05-03 10:29:00,
2013-05-03 06:32:00,56.2,53.0,30.13,South,171,0.0,9.0,89,0.00,,,0.00,Wunderground v.1.15,2013-05-03 10:32:00,
2013-05-03 06:33:00,56.2,53.0,30.13,South,171,0.0,9.0,89,0.00,,,0.00,Wunderground v.1.15,2013-05-03 10:33:00,
2013-05-03 06:34:00,56.2,53.0,30.13,South,171,0.0,9.0,89,0.00,,,0.00,Wunderground v.1.15,2013-05-03 10:34:00,
2013-05-03 06:36:00,56.2,53.0,30.13,South,171,0.0,9.0,89,0.00,,,0.00,Wunderground v.1.15,2013-05-03 10:36:00,
2013-05-03 06:38:00,56.3,53.1,30.13,South,171,0.0,9.0,89,0.00,,,0.00,Wunderground v.1.15,2013-05-03 10:38:00,
2013-05-03 06:39:00,56.3,53.1,30.13,South,171,0.0,9.0,89,0.00,,,0.00,Wunderground v.1.15,2013-05-03 10:39:00,
2013-05-03 06:40:00,56.3,53.1,30.13,South,171,0.0,9.0,89,0.00,,,0.00,Wunderground v.1.15,2013-05-03 10:40:00,
2013-05-03 06:41:00,56.3,53.1,30.13,South,171,0.0,9.0,89,0.00,,,0.00,Wunderground v.1.15,2013-05-03 10:41:00,
2013-05-03 06:42:00,56.3,53.1,30.13,South,171,0.0,9.0,89,0.00,,,0.00,Wunderground v.1.15,2013-05-03 10:42:00,
2013-05-03 06:45:00,56.3,52.8,30.13,South,171,0.0,9.0,88,0.00,,,0.00,Wunderground v.1.15,2013-05-03 10:45:00,
2013-05-03 06:47:00,56.3,52.8,30.13,South,171,0.0,9.0,88,0.00,,,0.00,Wunderground v.1.15,2013-05-03 10:47:00,
2013-05-03 06:48:00,56.2,53.0,30.13,South,171,0.0,9.0,89,0.00,,,0.00,Wunderground v.1.15,2013-05-03 10:48:00,
2013-05-03 06:51:00,56.2,53.0,30.14,South,171,0.0,9.0,89,0.00,,,0.00,Wunderground v.1.15,2013-05-03 10:51:00,
2013-05-03 06:52:00,56.2,53.0,30.14,South,171,0.0,9.0,89,0.00,,,0.00,Wunderground v.1.15,2013-05-03 10:52:00,
2013-05-03 06:55:00,56.1,52.9,30.14,South,171,0.0,9.0,89,0.00,,,0.00,Wunderground v.1.15,2013-05-03 10:55:00,
2013-05-03 06:57:00,56.1,52.9,30.14,South,171,0.0,9.0,89,0.00,,,0.00,Wunderground v.1.15,2013-05-03 10:57:00,
2013-05-03 06:58:00,56.1,52.9,30.14,South,171,0.0,9.0,89,0.00,,,0.00,Wunderground v.1.15,2013-05-03 10:58:00,
2013-05-03 07:01:00,56.1,52.9,30.14,South,171,0.0,9.0,89,0.00,,,0.00,Wunderground v.1.15,2013-05-03 11:01:00,
2013-05-03 07:04:00,56.1,52.9,30.14,South,171,0.0,9.0,89,0.00,,,0.00,Wunderground v.1.15,2013-05-03 11:04:00,
2013-05-03 07:06:00,56.1,52.9,30.14,South,171,0.0,9.0,89,0.00,,,0.00,Wunderground v.1.15,2013-05-03 11:06:00,
2013-05-03 07:07:00,56.1,52.9,30.14,South,171,0.0,9.0,89,0.00,,,0.00,Wunderground v.1.15,2013-05-03 11:07:00,
2013-05-03 07:09:00,56.2,53.0,30.14,South,171,0.0,9.0,89,0.00,,,0.00,Wunderground v.1.15,2013-05-03 11:09:00,
2013-05-03 07:12:00,56.2,53.0,30.14,East,92,0.0,9.0,89,0.00,,,0.00,Wunderground v.1.15,2013-05-03 11:12:00,
2013-05-03 07:15:00,56.2,53.0,30.14,East,92,0.0,9.0,89,0.00,,,0.00,Wunderground v.1.15,2013-05-03 11:15:00,
2013-05-03 07:17:00,56.3,53.1,30.14,East,92,0.0,9.0,89,0.00,,,0.00,Wunderground v.1.15,2013-05-03 11:17:00,
2013-05-03 07:18:00,56.3,53.1,30.14,East,92,0.0,9.0,89,0.00,,,0.00,Wunderground v.1.15,2013-05-03 11:18:00,
2013-05-03 07:19:00,56.3,53.1,30.14,East,92,0.0,9.0,89,0.00,,,0.00,Wunderground v.1.15,2013-05-03 11:19:00,
2013-05-03 07:23:00,56.5,53.3,30.14,East,92,0.0,9.0,89,0.00,,,0.00,Wunderground v.1.15,2013-05-03 11:23:00,
2013-05-03 07:27:00,56.7,53.5,30.14,SE,136,0.0,9.0,89,0.00,,,0.00,Wunderground v.1.15,2013-05-03 11:27:00,
2013-05-03 07:28:00,56.7,53.5,30.14,SE,136,0.0,9.0,89,0.00,,,0.00,Wunderground v.1.15,2013-05-03 11:28:00,
2013-05-03 07:29:00,56.7,53.5,30.15,SE,136,0.0,9.0,89,0.00,,,0.00,Wunderground v.1.15,2013-05-03 11:29:00,
2013-05-03 07:31:00,56.8,53.6,30.15,SE,137,0.0,9.0,89,0.00,,,0.00,Wunderground v.1.15,2013-05-03 11:31:00,
2013-05-03 07:33:00,56.9,53.7,30.15,SE,136,0.0,9.0,89,0.00,,,0.00,Wunderground v.1.15,2013-05-03 11:33:00,
2013-05-03 07:34:00,57.0,53.8,30.15,SE,136,0.0,9.0,89,0.00,,,0.00,Wunderground v.1.15,2013-05-03 11:34:00,
2013-05-03 07:35:00,57.1,53.9,30.15,SE,136,0.0,9.0,89,0.00,,,0.00,Wunderground v.1.15,2013-05-03 11:35:00,
2013-05-03 07:37:00,57.2,53.7,30.15,SE,136,0.0,9.0,88,0.00,,,0.00,Wunderground v.1.15,2013-05-03 11:37:00,
2013-05-03 07:40:00,57.4,53.9,30.15,SE,135,0.0,9.0,88,0.00,,,0.00,Wunderground v.1.15,2013-05-03 11:40:00,
2013-05-03 07:41:00,57.5,54.0,30.15,SE,134,0.0,9.0,88,0.00,,,0.00,Wunderground v.1.15,2013-05-03 11:41:00,
2013-05-03 07:44:00,57.6,54.1,30.15,ESE,111,0.0,9.0,88,0.00,,,0.00,Wunderground v.1.15,2013-05-03 11:44:00,
2013-05-03 07:47:00,57.8,54.3,30.15,ESE,111,0.0,9.0,88,0.00,,,0.00,Wunderground v.1.15,2013-05-03 11:47:00,
2013-05-03 07:48:00,57.8,54.3,30.15,ESE,111,0.0,9.0,88,0.00,,,0.00,Wunderground v.1.15,2013-05-03 11:48:00,
2013-05-03 07:49:00,57.9,54.4,30.15,ESE,111,0.0,9.0,88,0.00,,,0.00,Wunderground v.1.15,2013-05-03 11:49:00,
2013-05-03 07:52:00,58.0,54.8,30.15,ESE,111,0.0,9.0,89,0.00,,,0.00,Wunderground v.1.15,2013-05-03 11:52:00,
2013-05-03 07:54:00,58.1,54.6,30.15,East,89,0.0,9.0,88,0.00,,,0.00,Wunderground v.1.15,2013-05-03 11:54:00,
2013-05-03 07:57:00,58.3,55.1,30.15,SSE,151,0.0,9.0,89,0.00,,,0.00,Wunderground v.1.15,2013-05-03 11:57:00,
2013-05-03 07:58:00,58.4,54.9,30.15,SSE,151,0.0,9.0,88,0.00,,,0.00,Wunderground v.1.15,2013-05-03 11:58:00,
2013-05-03 08:01:00,58.6,55.1,30.15,SSE,151,0.0,9.0,88,0.00,,,0.00,Wunderground v.1.15,2013-05-03 12:01:00,
2013-05-03 08:02:00,58.6,55.1,30.15,SSE,151,0.0,9.0,88,0.00,,,0.00,Wunderground v.1.15,2013-05-03 12:02:00,
2013-05-03 08:03:00,58.7,55.2,30.15,SSE,151,0.0,9.0,88,0.00,,,0.00,Wunderground v.1.15,2013-05-03 12:03:00,
2013-05-03 08:06:00,58.8,54.9,30.15,SE,132,0.0,9.0,87,0.00,,,0.00,Wunderground v.1.15,2013-05-03 12:06:00,
2013-05-03 08:08:00,59.0,55.1,30.15,ESE,121,0.0,9.0,87,0.00,,,0.00,Wunderground v.1.15,2013-05-03 12:08:00,
2013-05-03 08:09:00,59.0,55.1,30.15,ESE,113,0.0,9.0,87,0.00,,,0.00,Wunderground v.1.15,2013-05-03 12:09:00,
2013-05-03 08:10:00,59.0,55.1,30.15,ESE,113,0.0,9.0,87,0.00,,,0.00,Wunderground v.1.15,2013-05-03 12:10:00,
2013-05-03 08:12:00,59.1,55.2,30.15,ESE,113,0.0,9.0,87,0.00,,,0.00,Wunderground v.1.15,2013-05-03 12:12:00,
2013-05-03 08:13:00,59.2,55.3,30.15,ESE,123,0.0,9.0,87,0.00,,,0.00,Wunderground v.1.15,2013-05-03 12:13:00,
2013-05-03 08:14:00,59.2,55.0,30.15,SE,134,0.0,9.0,86,0.00,,,0.00,Wunderground v.1.15,2013-05-03 12:14:00,
2013-05-03 08:18:00,59.4,55.2,30.15,SSW,213,0.0,9.0,86,0.00,,,0.00,Wunderground v.1.15,2013-05-03 12:18:00,
2013-05-03 08:19:00,59.4,55.2,30.15,SSW,213,0.0,9.0,86,0.00,,,0.00,Wunderground v.1.15,2013-05-03 12:19:00,
2013-05-03 08:20:00,59.4,55.2,30.15,SSW,213,0.0,9.0,86,0.00,,,0.00,Wunderground v.1.15,2013-05-03 12:20:00,
2013-05-03 08:22:00,59.5,55.3,30.15,East,101,0.0,9.0,86,0.00,,,0.00,Wunderground v.1.15,2013-05-03 12:22:00,
2013-05-03 08:24:00,59.6,55.4,30.15,East,101,0.0,9.0,86,0.00,,,0.00,Wunderground v.1.15,2013-05-03 12:24:00,
2013-05-03 08:25:00,59.7,55.5,30.15,SE,136,0.0,9.0,86,0.00,,,0.00,Wunderground v.1.15,2013-05-03 12:25:00,
2013-05-03 08:26:00,59.8,55.6,30.15,SE,133,0.0,9.0,86,0.00,,,0.00,Wunderground v.1.15,2013-05-03 12:26:00,
2013-05-03 08:27:00,59.8,55.6,30.15,SE,133,0.0,9.0,86,0.00,,,0.00,Wunderground v.1.15,2013-05-03 12:27:00,
2013-05-03 08:29:00,59.9,55.4,30.15,SE,133,0.0,9.0,85,0.00,,,0.00,Wunderground v.1.15,2013-05-03 12:29:00,
2013-05-03 08:32:00,60.2,56.0,30.15,SE,133,0.0,9.0,86,0.00,,,0.00,Wunderground v.1.15,2013-05-03 12:32:00,
2013-05-03 08:33:00,60.3,55.8,30.15,ESE,122,0.0,9.0,85,0.00,,,0.00,Wunderground v.1.15,2013-05-03 12:33:00,
2013-05-03 08:35:00,60.5,56.0,30.15,SSE,161,0.0,9.0,85,0.00,,,0.00,Wunderground v.1.15,2013-05-03 12:35:00,
2013-05-03 08:36:00,60.5,55.6,30.15,SE,129,0.0,9.0,84,0.00,,,0.00,Wunderground v.1.15,2013-05-03 12:36:00,
2013-05-03 08:37:00,60.6,55.1,30.15,SE,129,0.0,9.0,82,0.00,,,0.00,Wunderground v.1.15,2013-05-03 12:37:00,
2013-05-03 08:39:00,60.8,55.3,30.15,East,89,0.0,9.0,82,0.00,,,0.00,Wunderground v.1.15,2013-05-03 12:39:00,
2013-05-03 08:41:00,61.1,55.6,30.15,East,89,0.0,9.0,82,0.00,,,0.00,Wunderground v.1.15,2013-05-03 12:41:00,
2013-05-03 08:42:00,61.2,56.0,30.15,East,89,0.0,9.0,83,0.00,,,0.00,Wunderground v.1.15,2013-05-03 12:42:00,
2013-05-03 08:44:00,61.4,56.2,30.15,SW,234,0.0,9.0,83,0.00,,,0.00,Wunderground v.1.15,2013-05-03 12:44:00,
2013-05-03 08:46:00,61.6,56.0,30.14,East,101,0.0,9.0,82,0.00,,,0.00,Wunderground v.1.15,2013-05-03 12:46:00,
2013-05-03 08:47:00,61.7,55.8,30.14,NE,55,0.0,9.0,81,0.00,,,0.00,Wunderground v.1.15,2013-05-03 12:47:00,
2013-05-03 08:50:00,61.9,55.7,30.14,SE,146,0.0,9.0,80,0.00,,,0.00,Wunderground v.1.15,2013-05-03 12:50:00,
2013-05-03 08:51:00,62.0,55.8,30.14,SE,138,0.0,9.0,80,0.00,,,0.00,Wunderground v.1.15,2013-05-03 12:51:00,
2013-05-03 08:53:00,62.1,55.9,30.14,SSW,212,0.0,9.0,80,0.00,,,0.00,Wunderground v.1.15,2013-05-03 12:53:00,
2013-05-03 08:54:00,62.2,56.0,30.14,SSW,212,0.0,9.0,80,0.00,,,0.00,Wunderground v.1.15,2013-05-03 12:54:00,
2013-05-03 08:59:00,62.4,56.1,30.14,SSW,211,0.0,9.0,80,0.00,,,0.00,Wunderground v.1.15,2013-05-03 12:59:00,
2013-05-03 09:01:00,62.5,56.2,30.14,SSW,211,0.0,9.0,80,0.00,,,0.00,Wunderground v.1.15,2013-05-03 13:01:00,
2013-05-03 09:02:00,62.6,56.3,30.14,SSW,211,0.0,9.0,80,0.00,,,0.00,Wunderground v.1.15,2013-05-03 13:02:00,
2013-05-03 09:03:00,62.7,56.4,30.14,SSW,211,0.0,9.0,80,0.00,,,0.00,Wunderground v.1.15,2013-05-03 13:03:00,
2013-05-03 09:04:00,62.8,56.5,30.14,SSW,211,0.0,9.0,80,0.00,,,0.00,Wunderground v.1.15,2013-05-03 13:04:00,
2013-05-03 09:07:00,63.1,56.5,30.14,WNW,293,0.0,9.0,79,0.00,,,0.00,Wunderground v.1.15,2013-05-03 13:07:00,
2013-05-03 09:09:00,63.4,56.8,30.14,SSW,205,0.0,9.0,79,0.00,,,0.00,Wunderground v.1.15,2013-05-03 13:09:00,
2013-05-03 09:10:00,63.4,56.8,30.14,NE,34,0.0,9.0,79,0.00,,,0.00,Wunderground v.1.15,2013-05-03 13:10:00,
2013-05-03 09:11:00,63.5,56.9,30.14,NE,35,0.0,9.0,79,0.00,,,0.00,Wunderground v.1.15,2013-05-03 13:11:00,
2013-05-03 09:14:00,63.9,57.3,30.14,SW,234,0.0,9.0,79,0.00,,,0.00,Wunderground v.1.15,2013-05-03 13:14:00,
2013-05-03 09:16:00,64.1,57.5,30.14,ESE,112,0.0,9.0,79,0.00,,,0.00,Wunderground v.1.15,2013-05-03 13:16:00,
2013-05-03 09:17:00,64.2,56.5,30.14,SW,217,0.0,9.0,76,0.00,,,0.00,Wunderground v.1.15,2013-05-03 13:17:00,
2013-05-03 09:20:00,64.4,56.7,30.14,SSE,157,0.0,9.0,76,0.00,,,0.00,Wunderground v.1.15,2013-05-03 13:20:00,
2013-05-03 09:21:00,64.4,56.3,30.14,NW,306,0.0,9.0,75,0.00,,,0.00,Wunderground v.1.15,2013-05-03 13:21:00,
2013-05-03 09:22:00,64.5,56.4,30.14,ESE,115,0.0,9.0,75,0.00,,,0.00,Wunderground v.1.15,2013-05-03 13:22:00,
2013-05-03 09:23:00,64.5,56.8,30.14,SE,130,0.0,9.0,76,0.00,,,0.00,Wunderground v.1.15,2013-05-03 13:23:00,
2013-05-03 09:27:00,64.8,57.1,30.14,ESE,120,0.0,9.0,76,0.00,,,0.00,Wunderground v.1.15,2013-05-03 13:27:00,
2013-05-03 09:28:00,65.0,57.2,30.14,SW,227,0.0,9.0,76,0.00,,,0.00,Wunderground v.1.15,2013-05-03 13:28:00,
2013-05-03 09:29:00,65.0,56.9,30.14,NW,319,0.0,9.0,75,0.00,,,0.00,Wunderground v.1.15,2013-05-03 13:29:00,
2013-05-03 09:33:00,65.2,56.7,30.14,SW,217,0.0,9.0,74,0.00,,,0.00,Wunderground v.1.15,2013-05-03 13:33:00,
2013-05-03 09:34:00,65.2,56.3,30.14,East,93,0.0,9.0,73,0.00,,,0.00,Wunderground v.1.15,2013-05-03 13:34:00,
2013-05-03 09:37:00,65.3,56.8,30.14,SE,131,0.0,9.0,74,0.00,,,0.00,Wunderground v.1.15,2013-05-03 13:37:00,
2013-05-03 09:38:00,65.3,56.4,30.14,SSW,196,0.0,9.0,73,0.00,,,0.00,Wunderground v.1.15,2013-05-03 13:38:00,
2013-05-03 09:41:00,65.5,55.8,30.14,ESE,123,0.0,9.0,71,0.00,,,0.00,Wunderground v.1.15,2013-05-03 13:41:00,
2013-05-03 09:42:00,65.6,56.7,30.14,East,84,0.0,9.0,73,0.00,,,0.00,Wunderground v.1.15,2013-05-03 13:42:00,
2013-05-03 09:44:00,65.9,57.4,30.13,ESE,112,0.0,9.0,74,0.00,,,0.00,Wunderground v.1.15,2013-05-03 13:44:00,
2013-05-03 09:47:00,66.2,57.3,30.14,SSW,211,0.0,9.0,73,0.00,,,0.00,Wunderground v.1.15,2013-05-03 13:47:00,
2013-05-03 09:49:00,66.3,56.2,30.13,SSW,210,0.0,9.0,70,0.00,,,0.00,Wunderground v.1.15,2013-05-03 13:49:00,
2013-05-03 09:51:00,66.4,56.7,30.13,East,89,0.0,9.0,71,0.00,,,0.00,Wunderground v.1.15,2013-05-03 13:51:00,
2013-05-03 09:52:00,66.5,56.8,30.13,ESE,110,0.0,9.0,71,0.00,,,0.00,Wunderground v.1.15,2013-05-03 13:52:00,
2013-05-03 09:54:00,66.6,57.7,30.13,SSE,161,0.0,9.0,73,0.00,,,0.00,Wunderground v.1.15,2013-05-03 13:54:00,
2013-05-03 09:55:00,66.7,57.4,30.13,SE,130,0.0,9.0,72,0.00,,,0.00,Wunderground v.1.15,2013-05-03 13:55:00,
2013-05-03 09:56:00,66.8,57.9,30.13,SE,126,0.0,9.0,73,0.00,,,0.00,Wunderground v.1.15,2013-05-03 13:56:00,
2013-05-03 09:57:00,66.8,57.5,30.13,SE,141,0.0,9.0,72,0.00,,,0.00,Wunderground v.1.15,2013-05-03 13:57:00,
2013-05-03 10:01:00,66.8,57.5,30.13,SSW,193,0.0,9.0,72,0.00,,,0.00,Wunderground v.1.15,2013-05-03 14:01:00,
2013-05-03 10:02:00,66.8,57.1,30.13,SE,138,0.0,9.0,71,0.00,,,0.00,Wunderground v.1.15,2013-05-03 14:02:00,
2013-05-03 10:03:00,66.7,57.4,30.13,ESE,108,0.0,9.0,72,0.00,,,0.00,Wunderground v.1.15,2013-05-03 14:03:00,
2013-05-03 10:04:00,66.7,57.4,30.13,ESE,108,0.0,9.0,72,0.00,,,0.00,Wunderground v.1.15,2013-05-03 14:04:00,
2013-05-03 10:05:00,66.8,58.2,30.13,NNW,333,0.0,9.0,74,0.00,,,0.00,Wunderground v.1.15,2013-05-03 14:05:00,
2013-05-03 10:07:00,66.8,57.9,30.13,SW,217,0.0,9.0,73,0.00,,,0.00,Wunderground v.1.15,2013-05-03 14:07:00,
2013-05-03 10:08:00,66.8,57.1,30.13,SSW,207,0.0,9.0,71,0.00,,,0.00,Wunderground v.1.15,2013-05-03 14:08:00,
2013-05-03 10:10:00,66.9,58.0,30.13,SSW,209,0.0,9.0,73,0.00,,,0.00,Wunderground v.1.15,2013-05-03 14:10:00,
2013-05-03 10:12:00,67.0,56.9,30.13,SSW,211,0.0,9.0,70,0.00,,,0.00,Wunderground v.1.15,2013-05-03 14:12:00,
2013-05-03 10:13:00,67.0,56.9,30.13,South,173,0.0,9.0,70,0.00,,,0.00,Wunderground v.1.15,2013-05-03 14:13:00,
2013-05-03 10:14:00,67.0,57.3,30.13,South,173,0.0,9.0,71,0.00,,,0.00,Wunderground v.1.15,2013-05-03 14:14:00,
2013-05-03 10:17:00,67.2,57.9,30.13,NNE,17,0.0,9.0,72,0.00,,,0.00,Wunderground v.1.15,2013-05-03 14:17:00,
2013-05-03 10:19:00,67.3,58.0,30.13,West,269,0.0,9.0,72,0.00,,,0.00,Wunderground v.1.15,2013-05-03 14:19:00,
2013-05-03 10:22:00,67.4,58.1,30.13,South,183,0.0,9.0,72,0.00,,,0.00,Wunderground v.1.15,2013-05-03 14:22:00,
2013-05-03 10:23:00,67.5,58.2,30.13,SSW,205,0.0,9.0,72,0.00,,,0.00,Wunderground v.1.15,2013-05-03 14:23:00,
2013-05-03 10:24:00,67.4,56.5,30.12,SSW,196,0.0,9.0,68,0.00,,,0.00,Wunderground v.1.15,2013-05-03 14:24:00,
2013-05-03 10:25:00,67.4,56.5,30.13,SSW,213,1.0,9.0,68,0.00,,,0.00,Wunderground v.1.15,2013-05-03 14:25:00,
2013-05-03 10:29:00,67.3,56.8,30.13,SSW,196,1.0,9.0,69,0.00,,,0.00,Wunderground v.1.15,2013-05-03 14:29:00,
2013-05-03 10:31:00,67.3,56.4,30.13,SE,144,1.0,1.0,68,0.00,,,0.00,Wunderground v.1.15,2013-05-03 14:31:00,
2013-05-03 10:32:00,67.3,56.8,30.12,WSW,246,1.0,3.0,69,0.00,,,0.00,Wunderground v.1.15,2013-05-03 14:32:00,
2013-05-03 10:33:00,67.2,57.1,30.12,SSE,160,1.0,9.0,70,0.00,,,0.00,Wunderground v.1.15,2013-05-03 14:33:00,
2013-05-03 10:36:00,67.2,56.3,30.12,SSW,209,1.0,9.0,68,0.00,,,0.00,Wunderground v.1.15,2013-05-03 14:36:00,
2013-05-03 10:38:00,67.3,57.2,30.12,SSW,207,1.0,9.0,70,0.00,,,0.00,Wunderground v.1.15,2013-05-03 14:38:00,
2013-05-03 10:41:00,67.6,57.9,30.12,SSW,201,1.0,9.0,71,0.00,,,0.00,Wunderground v.1.15,2013-05-03 14:41:00,
2013-05-03 10:42:00,67.7,57.2,30.12,South,188,1.0,9.0,69,0.00,,,0.00,Wunderground v.1.15,2013-05-03 14:42:00,
2013-05-03 10:43:00,67.8,56.9,30.12,SE,140,0.0,9.0,68,0.00,,,0.00,Wunderground v.1.15,2013-05-03 14:43:00,
2013-05-03 10:47:00,68.0,56.6,30.12,South,172,0.0,9.0,67,0.00,,,0.00,Wunderground v.1.15,2013-05-03 14:47:00,
2013-05-03 10:48:00,68.1,56.7,30.12,SSW,193,0.0,9.0,67,0.00,,,0.00,Wunderground v.1.15,2013-05-03 14:48:00,
2013-05-03 10:51:00,68.5,58.7,30.12,East,80,0.0,9.0,71,0.00,,,0.00,Wunderground v.1.15,2013-05-03 14:51:00,
2013-05-03 10:52:00,68.6,58.4,30.12,SE,126,0.0,9.0,70,0.00,,,0.00,Wunderground v.1.15,2013-05-03 14:52:00,
2013-05-03 10:54:00,68.9,56.6,30.12,South,184,1.0,9.0,65,0.00,,,0.00,Wunderground v.1.15,2013-05-03 14:54:00,
2013-05-03 10:57:00,69.2,58.2,30.12,ESE,107,1.0,9.0,68,0.00,,,0.00,Wunderground v.1.15,2013-05-03 14:57:00,
2013-05-03 10:58:00,69.3,57.5,30.12,SE,125,1.0,9.0,66,0.00,,,0.00,Wunderground v.1.15,2013-05-03 14:58:00,
2013-05-03 10:59:00,69.4,57.1,30.12,South,178,0.0,9.0,65,0.00,,,0.00,Wunderground v.1.15,2013-05-03 14:59:00,
2013-05-03 11:02:00,69.7,57.4,30.12,WSW,256,0.0,9.0,65,0.00,,,0.00,Wunderground v.1.15,2013-05-03 15:02:00,
2013-05-03 11:03:00,69.7,57.4,30.12,South,186,0.0,9.0,65,0.00,,,0.00,Wunderground v.1.15,2013-05-03 15:03:00,
2013-05-03 11:04:00,69.8,58.3,30.12,SSW,192,0.0,9.0,67,0.00,,,0.00,Wunderground v.1.15,2013-05-03 15:04:00,
2013-05-03 11:07:00,69.7,57.0,30.12,East,88,1.0,9.0,64,0.00,,,0.00,Wunderground v.1.15,2013-05-03 15:07:00,
2013-05-03 11:08:00,69.7,57.4,30.12,South,189,1.0,9.0,65,0.00,,,0.00,Wunderground v.1.15,2013-05-03 15:08:00,
2013-05-03 11:10:00,69.6,56.4,30.12,South,170,1.0,9.0,63,0.00,,,0.00,Wunderground v.1.15,2013-05-03 15:10:00,
2013-05-03 11:13:00,69.2,56.5,30.12,SSW,202,1.0,9.0,64,0.00,,,0.00,Wunderground v.1.15,2013-05-03 15:13:00,
2013-05-03 11:15:00,69.1,57.3,30.12,SSW,198,1.0,9.0,66,0.00,,,0.00,Wunderground v.1.15,2013-05-03 15:15:00,
2013-05-03 11:16:00,69.3,58.3,30.12,SSW,195,1.0,9.0,68,0.00,,,0.00,Wunderground v.1.15,2013-05-03 15:16:00,
2013-05-03 11:19:00,70.1,59.5,30.12,West,262,1.0,9.0,69,0.00,,,0.00,Wunderground v.1.15,2013-05-03 15:19:00,
2013-05-03 11:22:00,70.2,57.9,30.11,ESE,120,1.0,9.0,65,0.00,,,0.00,Wunderground v.1.15,2013-05-03 15:22:00,
2013-05-03 11:23:00,70.4,58.9,30.11,East,97,1.0,9.0,67,0.00,,,0.00,Wunderground v.1.15,2013-05-03 15:23:00,
2013-05-03 11:25:00,70.6,57.8,30.12,West,269,1.0,9.0,64,0.00,,,0.00,Wunderground v.1.15,2013-05-03 15:25:00,
2013-05-03 11:27:00,70.9,59.0,30.11,NNE,24,1.0,9.0,66,0.00,,,0.00,Wunderground v.1.15,2013-05-03 15:27:00,
2013-05-03 11:28:00,71.0,58.6,30.11,SW,223,1.0,9.0,65,0.00,,,0.00,Wunderground v.1.15,2013-05-03 15:28:00,
2013-05-03 11:29:00,71.0,58.6,30.12,South,171,0.0,9.0,65,0.00,,,0.00,Wunderground v.1.15,2013-05-03 15:29:00,
2013-05-03 11:32:00,71.3,58.1,30.12,South,184,0.0,9.0,63,0.00,,,0.00,Wunderground v.1.15,2013-05-03 15:32:00,
2013-05-03 11:34:00,71.4,58.1,30.12,SE,146,0.0,9.0,63,0.00,,,0.00,Wunderground v.1.15,2013-05-03 15:34:00,
2013-05-03 11:35:00,71.5,58.2,30.11,NE,55,0.0,9.0,63,0.00,,,0.00,Wunderground v.1.15,2013-05-03 15:35:00,
2013-05-03 11:36:00,71.5,59.5,30.11,South,179,0.0,9.0,66,0.00,,,0.00,Wunderground v.1.15,2013-05-03 15:36:00,
2013-05-03 11:38:00,71.3,58.1,30.11,SSW,204,0.0,9.0,63,0.00,,,0.00,Wunderground v.1.15,2013-05-03 15:38:00,
2013-05-03 11:40:00,71.2,57.5,30.11,North,11,0.0,9.0,62,0.00,,,0.00,Wunderground v.1.15,2013-05-03 15:40:00,
2013-05-03 11:41:00,71.3,58.1,30.11,East,86,0.0,9.0,63,0.00,,,0.00,Wunderground v.1.15,2013-05-03 15:41:00,
2013-05-03 11:43:00,71.5,59.1,30.11,SE,132,0.0,9.0,65,0.00,,,0.00,Wunderground v.1.15,2013-05-03 15:43:00,
2013-05-03 11:44:00,71.6,59.2,30.11,SE,128,0.0,9.0,65,0.00,,,0.00,Wunderground v.1.15,2013-05-03 15:44:00,
2013-05-03 11:48:00,72.0,58.7,30.11,SSW,195,0.0,9.0,63,0.00,,,0.00,Wunderground v.1.15,2013-05-03 15:48:00,
2013-05-03 11:49:00,72.0,58.7,30.11,SE,132,0.0,9.0,63,0.00,,,0.00,Wunderground v.1.15,2013-05-03 15:49:00,
2013-05-03 11:50:00,72.0,59.2,30.11,SE,132,0.0,9.0,64,0.00,,,0.00,Wunderground v.1.15,2013-05-03 15:50:00,
2013-05-03 11:54:00,72.2,58.5,30.11,SW,218,0.0,9.0,62,0.00,,,0.00,Wunderground v.1.15,2013-05-03 15:54:00,
2013-05-03 11:55:00,72.2,58.5,30.11,SSE,165,0.0,9.0,62,0.00,,,0.00,Wunderground v.1.15,2013-05-03 15:55:00,
2013-05-03 11:56:00,72.2,58.5,30.11,SSW,202,0.0,9.0,62,0.00,,,0.00,Wunderground v.1.15,2013-05-03 15:56:00,
2013-05-03 11:58:00,72.1,56.5,30.11,SW,223,0.0,9.0,58,0.00,,,0.00,Wunderground v.1.15,2013-05-03 15:58:00,
2013-05-03 12:01:00,72.1,58.4,30.11,SSW,209,0.0,9.0,62,0.00,,,0.00,Wunderground v.1.15,2013-05-03 16:01:00,
2013-05-03 12:02:00,72.2,58.5,30.11,SSW,192,0.0,9.0,62,0.00,,,0.00,Wunderground v.1.15,2013-05-03 16:02:00,
2013-05-03 12:04:00,72.4,58.6,30.11,SSW,207,0.0,9.0,62,0.00,,,0.00,Wunderground v.1.15,2013-05-03 16:04:00,
2013-05-03 12:07:00,72.7,58.5,30.11,WSW,243,0.0,9.0,61,0.00,,,0.00,Wunderground v.1.15,2013-05-03 16:07:00,
2013-05-03 12:08:00,72.7,58.5,30.11,SW,219,0.0,9.0,61,0.00,,,0.00,Wunderground v.1.15,2013-05-03 16:08:00,
2013-05-03 12:12:00,72.6,59.3,30.11,South,181,1.0,9.0,63,0.00,,,0.00,Wunderground v.1.15,2013-05-03 16:12:00,
2013-05-03 12:13:00,72.6,58.4,30.11,SSW,207,1.0,9.0,61,0.00,,,0.00,Wunderground v.1.15,2013-05-03 16:13:00,
2013-05-03 12:14:00,72.5,57.8,30.10,SSW,206,1.0,9.0,60,0.00,,,0.00,Wunderground v.1.15,2013-05-03 16:14:00,
2013-05-03 12:17:00,71.7,57.5,30.10,SSW,194,1.0,9.0,61,0.00,,,0.00,Wunderground v.1.15,2013-05-03 16:17:00,
2013-05-03 12:18:00,71.3,56.7,30.10,South,183,2.0,9.0,60,0.00,,,0.00,Wunderground v.1.15,2013-05-03 16:18:00,
2013-05-03 12:19:00,71.1,58.3,30.10,West,278,2.0,9.0,64,0.00,,,0.00,Wunderground v.1.15,2013-05-03 16:19:00,
2013-05-03 12:21:00,71.3,58.9,30.10,NE,54,2.0,2.0,65,0.00,,,0.00,Wunderground v.1.15,2013-05-03 16:21:00,
2013-05-03 12:24:00,72.1,58.8,30.10,South,177,2.0,9.0,63,0.00,,,0.00,Wunderground v.1.15,2013-05-03 16:24:00,
2013-05-03 12:25:00,72.2,58.0,30.10,SSW,200,1.0,9.0,61,0.00,,,0.00,Wunderground v.1.15,2013-05-03 16:25:00,
2013-05-03 12:26:00,72.2,57.5,30.10,SSW,212,1.0,9.0,60,0.00,,,0.00,Wunderground v.1.15,2013-05-03 16:26:00,
2013-05-03 12:29:00,71.8,58.1,30.10,SSE,161,1.0,9.0,62,0.00,,,0.00,Wunderground v.1.15,2013-05-03 16:29:00,
2013-05-03 12:31:00,71.8,58.1,30.10,SSW,211,1.0,1.0,62,0.00,,,0.00,Wunderground v.1.15,2013-05-03 16:31:00,
2013-05-03 12:33:00,71.9,57.3,30.10,SSE,154,1.0,9.0,60,0.00,,,0.00,Wunderground v.1.15,2013-05-03 16:33:00,
2013-05-03 12:34:00,71.9,59.1,30.10,SW,236,1.0,9.0,64,0.00,,,0.00,Wunderground v.1.15,2013-05-03 16:34:00,
2013-05-03 12:36:00,72.0,59.2,30.10,SW,217,0.0,9.0,64,0.00,,,0.00,Wunderground v.1.15,2013-05-03 16:36:00,
2013-05-03 12:37:00,72.0,57.8,30.10,SW,227,0.0,9.0,61,0.00,,,0.00,Wunderground v.1.15,2013-05-03 16:37:00,
2013-05-03 12:39:00,72.1,59.2,30.10,SSW,205,0.0,9.0,64,0.00,,,0.00,Wunderground v.1.15,2013-05-03 16:39:00,
2013-05-03 12:40:00,72.1,58.4,30.10,East,101,1.0,9.0,62,0.00,,,0.00,Wunderground v.1.15,2013-05-03 16:40:00,
2013-05-03 12:45:00,73.1,58.4,30.10,ESE,105,1.0,9.0,60,0.00,,,0.00,Wunderground v.1.15,2013-05-03 16:45:00,
2013-05-03 12:46:00,73.2,57.5,30.09,NE,49,1.0,9.0,58,0.00,,,0.00,Wunderground v.1.15,2013-05-03 16:46:00,
2013-05-03 12:48:00,73.6,58.4,30.09,ESE,113,1.0,9.0,59,0.00,,,0.00,Wunderground v.1.15,2013-05-03 16:48:00,
2013-05-03 12:52:00,74.4,60.5,30.09,SSW,213,0.0,9.0,62,0.00,,,0.00,Wunderground v.1.15,2013-05-03 16:52:00,
2013-05-03 12:53:00,74.6,61.2,30.09,South,182,0.0,9.0,63,0.00,,,0.00,Wunderground v.1.15,2013-05-03 16:53:00,
2013-05-03 12:57:00,74.4,57.2,30.08,SE,146,1.0,9.0,55,0.00,,,0.00,Wunderground v.1.15,2013-05-03 16:57:00,
2013-05-03 12:58:00,74.3,57.1,30.08,SSW,207,1.0,9.0,55,0.00,,,0.00,Wunderground v.1.15,2013-05-03 16:58:00,
2013-05-03 13:02:00,73.9,59.1,30.08,ESE,109,1.0,9.0,60,0.00,,,0.00,Wunderground v.1.15,2013-05-03 17:02:00,
2013-05-03 13:03:00,74.0,59.2,30.08,ESE,111,1.0,9.0,60,0.00,,,0.00,Wunderground v.1.15,2013-05-03 17:03:00,
2013-05-03 13:04:00,74.2,60.3,30.08,South,190,1.0,9.0,62,0.00,,,0.00,Wunderground v.1.15,2013-05-03 17:04:00,
2013-05-03 13:06:00,74.6,59.8,30.08,NNW,332,1.0,9.0,60,0.00,,,0.00,Wunderground v.1.15,2013-05-03 17:06:00,
2013-05-03 13:09:00,74.6,58.4,30.08,South,184,1.0,9.0,57,0.00,,,0.00,Wunderground v.1.15,2013-05-03 17:09:00,
2013-05-03 13:11:00,74.1,58.9,30.08,South,182,2.0,2.0,59,0.00,,,0.00,Wunderground v.1.15,2013-05-03 17:11:00,
2013-05-03 13:13:00,73.8,58.6,30.08,WSW,241,2.0,9.0,59,0.00,,,0.00,Wunderground v.1.15,2013-05-03 17:13:00,
2013-05-03 13:14:00,73.9,60.1,30.08,WSW,250,2.0,9.0,62,0.00,,,0.00,Wunderground v.1.15,2013-05-03 17:14:00,
2013-05-03 13:16:00,73.9,58.7,30.08,SSW,196,3.0,9.0,59,0.00,,,0.00,Wunderground v.1.15,2013-05-03 17:16:00,
2013-05-03 13:19:00,73.9,59.6,30.08,SSW,208,3.0,9.0,61,0.00,,,0.00,Wunderground v.1.15,2013-05-03 17:19:00,
2013-05-03 13:20:00,74.1,60.7,30.08,SE,132,2.0,9.0,63,0.00,,,0.00,Wunderground v.1.15,2013-05-03 17:20:00,
2013-05-03 13:22:00,74.6,60.7,30.08,ENE,73,2.0,9.0,62,0.00,,,0.00,Wunderground v.1.15,2013-05-03 17:22:00,
2013-05-03 13:23:00,75.0,60.6,30.08,WSW,247,2.0,9.0,61,0.00,,,0.00,Wunderground v.1.15,2013-05-03 17:23:00,
2013-05-03 13:24:00,75.2,59.9,30.08,SSW,202,2.0,9.0,59,0.00,,,0.00,Wunderground v.1.15,2013-05-03 17:24:00,
2013-05-03 13:28:00,73.9,57.2,30.07,SSE,159,3.0,9.0,56,0.00,,,0.00,Wunderground v.1.15,2013-05-03 17:28:00,
2013-05-03 13:31:00,73.2,58.9,30.07,SSW,205,4.0,9.0,61,0.00,,,0.00,Wunderground v.1.15,2013-05-03 17:31:00,
2013-05-03 13:33:00,72.9,57.3,30.07,SSW,210,5.0,9.0,58,0.00,,,0.00,Wunderground v.1.15,2013-05-03 17:33:00,
2013-05-03 13:34:00,72.8,57.2,30.07,SSW,211,5.0,9.0,58,0.00,,,0.00,Wunderground v.1.15,2013-05-03 17:34:00,
2013-05-03 13:35:00,72.6,57.4,30.07,SW,225,5.0,9.0,59,0.00,,,0.00,Wunderground v.1.15,2013-05-03 17:35:00,
2013-05-03 13:37:00,72.5,58.3,30.07,SSW,206,4.0,9.0,61,0.00,,,0.00,Wunderground v.1.15,2013-05-03 17:37:00,
2013-05-03 13:38:00,72.5,59.2,30.07,SSW,205,4.0,9.0,63,0.00,,,0.00,Wunderground v.1.15,2013-05-03 17:38:00,
2013-05-03 13:42:00,72.9,60.0,30.07,ESE,112,2.0,9.0,64,0.00,,,0.00,Wunderground v.1.15,2013-05-03 17:42:00,
2013-05-03 13:44:00,73.1,61.1,30.07,ESE,103,1.0,9.0,66,0.00,,,0.00,Wunderground v.1.15,2013-05-03 17:44:00,
2013-05-03 13:45:00,73.2,60.3,30.07,SE,138,1.0,9.0,64,0.00,,,0.00,Wunderground v.1.15,2013-05-03 17:45:00,
2013-05-03 13:46:00,73.4,59.1,30.07,South,173,0.0,9.0,61,0.00,,,0.00,Wunderground v.1.15,2013-05-03 17:46:00,
2013-05-03 13:50:00,74.1,60.2,30.06,SE,130,0.0,9.0,62,0.00,,,0.00,Wunderground v.1.15,2013-05-03 17:50:00,
2013-05-03 13:51:00,74.3,60.4,30.06,East,79,0.0,9.0,62,0.00,,,0.00,Wunderground v.1.15,2013-05-03 17:51:00,
2013-05-03 13:52:00,74.4,60.1,30.06,SW,236,0.0,9.0,61,0.00,,,0.00,Wunderground v.1.15,2013-05-03 17:52:00,
2013-05-03 13:53:00,74.4,60.1,30.06,ESE,119,0.0,9.0,61,0.00,,,0.00,Wunderground v.1.15,2013-05-03 17:53:00,
2013-05-03 13:57:00,74.7,61.3,30.06,WSW,242,0.0,9.0,63,0.00,,,0.00,Wunderground v.1.15,2013-05-03 17:57:00,
2013-05-03 13:58:00,74.9,61.5,30.06,WSW,244,0.0,9.0,63,0.00,,,0.00,Wunderground v.1.15,2013-05-03 17:58:00,
2013-05-03 13:59:00,74.8,60.4,30.06,WSW,253,1.0,9.0,61,0.00,,,0.00,Wunderground v.1.15,2013-05-03 17:59:00,
2013-05-03 14:02:00,74.6,60.3,30.06,ESE,110,1.0,9.0,61,0.00,,,0.00,Wunderground v.1.15,2013-05-03 18:02:00,
2013-05-03 14:03:00,74.6,60.3,30.06,SW,217,0.0,9.0,61,0.00,,,0.00,Wunderground v.1.15,2013-05-03 18:03:00,
2013-05-03 14:04:00,74.6,60.3,30.06,NE,47,0.0,9.0,61,0.00,,,0.00,Wunderground v.1.15,2013-05-03 18:04:00,
2013-05-03 14:05:00,74.5,60.2,30.06,SW,219,1.0,9.0,61,0.00,,,0.00,Wunderground v.1.15,2013-05-03 18:05:00,
2013-05-03 14:06:00,74.4,58.7,30.06,SSW,202,1.0,9.0,58,0.00,,,0.00,Wunderground v.1.15,2013-05-03 18:06:00,
2013-05-03 14:10:00,74.1,60.7,30.06,NE,46,1.0,9.0,63,0.00,,,0.00,Wunderground v.1.15,2013-05-03 18:10:00,
2013-05-03 14:12:00,74.1,59.3,30.06,East,96,1.0,9.0,60,0.00,,,0.00,Wunderground v.1.15,2013-05-03 18:12:00,
2013-05-03 14:13:00,74.1,59.3,30.06,NW,316,1.0,9.0,60,0.00,,,0.00,Wunderground v.1.15,2013-05-03 18:13:00,
2013-05-03 14:14:00,74.1,60.2,30.06,ESE,107,1.0,9.0,62,0.00,,,0.00,Wunderground v.1.15,2013-05-03 18:14:00,
2013-05-03 14:15:00,74.1,60.2,30.06,East,84,1.0,9.0,62,0.00,,,0.00,Wunderground v.1.15,2013-05-03 18:15:00,
2013-05-03 14:18:00,74.0,57.8,30.06,East,96,0.0,9.0,57,0.00,,,0.00,Wunderground v.1.15,2013-05-03 18:18:00,
2013-05-03 14:21:00,73.7,58.5,30.06,East,89,1.0,1.0,59,0.00,,,0.00,Wunderground v.1.15,2013-05-03 18:21:00,
2013-05-03 14:22:00,73.7,59.4,30.06,East,83,1.0,9.0,61,0.00,,,0.00,Wunderground v.1.15,2013-05-03 18:22:00,
2013-05-03 14:25:00,73.5,57.3,30.06,WSW,240,1.0,9.0,57,0.00,,,0.00,Wunderground v.1.15,2013-05-03 18:25:00,
2013-05-03 14:27:00,73.3,57.6,30.06,South,181,1.0,9.0,58,0.00,,,0.00,Wunderground v.1.15,2013-05-03 18:27:00,
2013-05-03 14:32:00,73.4,58.7,30.06,SW,232,1.0,9.0,60,0.00,,,0.00,Wunderground v.1.15,2013-05-03 18:32:00,
2013-05-03 14:33:00,73.6,59.3,30.06,WSW,241,1.0,9.0,61,0.00,,,0.00,Wunderground v.1.15,2013-05-03 18:33:00,
2013-05-03 14:34:00,73.6,58.4,30.06,SSW,200,1.0,9.0,59,0.00,,,0.00,Wunderground v.1.15,2013-05-03 18:34:00,
2013-05-03 14:37:00,74.1,59.8,30.06,West,261,2.0,9.0,61,0.00,,,0.00,Wunderground v.1.15,2013-05-03 18:37:00,
2013-05-03 14:38:00,74.5,58.3,30.06,SE,132,1.0,9.0,57,0.00,,,0.00,Wunderground v.1.15,2013-05-03 18:38:00,
2013-05-03 14:40:00,75.0,59.2,30.06,ESE,107,1.0,9.0,58,0.00,,,0.00,Wunderground v.1.15,2013-05-03 18:40:00,
2013-05-03 14:43:00,75.2,57.4,30.06,SW,221,2.0,9.0,54,0.00,,,0.00,Wunderground v.1.15,2013-05-03 18:43:00,
2013-05-03 14:45:00,74.7,58.0,30.06,SSE,157,3.0,9.0,56,0.00,,,0.00,Wunderground v.1.15,2013-05-03 18:45:00,
2013-05-03 14:46:00,74.5,58.3,30.05,SSW,197,3.0,9.0,57,0.00,,,0.00,Wunderground v.1.15,2013-05-03 18:46:00,
2013-05-03 14:47:00,74.4,57.2,30.05,South,182,3.0,9.0,55,0.00,,,0.00,Wunderground v.1.15,2013-05-03 18:47:00,
2013-05-03 14:48:00,74.3,57.6,30.05,SSW,209,3.0,9.0,56,0.00,,,0.00,Wunderground v.1.15,2013-05-03 18:48:00,
2013-05-03 14:52:00,74.8,57.5,30.05,ESE,115,3.0,9.0,55,0.00,,,0.00,Wunderground v.1.15,2013-05-03 18:52:00,
2013-05-03 14:53:00,75.0,58.7,30.05,ESE,106,3.0,9.0,57,0.00,,,0.00,Wunderground v.1.15,2013-05-03 18:53:00,
2013-05-03 14:54:00,75.1,59.3,30.05,SE,132,2.0,9.0,58,0.00,,,0.00,Wunderground v.1.15,2013-05-03 18:54:00,
2013-05-03 14:58:00,75.5,58.7,30.05,NW,323,1.0,9.0,56,0.00,,,0.00,Wunderground v.1.15,2013-05-03 18:58:00,
2013-05-03 14:59:00,75.6,58.3,30.05,ENE,77,1.0,9.0,55,0.00,,,0.00,Wunderground v.1.15,2013-05-03 18:59:00,
2013-05-03 15:02:00,75.7,58.9,30.05,NE,53,1.0,9.0,56,0.00,,,0.00,Wunderground v.1.15,2013-05-03 19:02:00,
2013-05-03 15:03:00,75.8,59.0,30.05,SE,129,1.0,9.0,56,0.00,,,0.00,Wunderground v.1.15,2013-05-03 19:03:00,
2013-05-03 15:04:00,75.8,58.0,30.05,East,82,1.0,9.0,54,0.00,,,0.00,Wunderground v.1.15,2013-05-03 19:04:00,
2013-05-03 15:06:00,75.7,58.9,30.05,SW,231,1.0,9.0,56,0.00,,,0.00,Wunderground v.1.15,2013-05-03 19:06:00,
2013-05-03 15:08:00,75.7,58.4,30.05,SW,217,1.0,9.0,55,0.00,,,0.00,Wunderground v.1.15,2013-05-03 19:08:00,
2013-05-03 15:10:00,75.5,57.2,30.04,SSW,205,2.0,9.0,53,0.00,,,0.00,Wunderground v.1.15,2013-05-03 19:10:00,
2013-05-03 15:12:00,75.2,57.4,30.04,SW,217,2.0,9.0,54,0.00,,,0.00,Wunderground v.1.15,2013-05-03 19:12:00,
2013-05-03 15:13:00,75.0,57.2,30.04,SW,228,2.0,9.0,54,0.00,,,0.00,Wunderground v.1.15,2013-05-03 19:13:00,
2013-05-03 15:14:00,74.8,57.0,30.04,SSW,213,3.0,9.0,54,0.00,,,0.00,Wunderground v.1.15,2013-05-03 19:14:00,
2013-05-03 15:16:00,74.5,57.3,30.04,SW,229,3.0,9.0,55,0.00,,,0.00,Wunderground v.1.15,2013-05-03 19:16:00,
2013-05-03 15:18:00,74.6,57.9,30.04,South,184,3.0,9.0,56,0.00,,,0.00,Wunderground v.1.15,2013-05-03 19:18:00,
2013-05-03 15:19:00,74.6,57.9,30.04,SW,225,2.0,9.0,56,0.00,,,0.00,Wunderground v.1.15,2013-05-03 19:19:00,
2013-05-03 15:20:00,74.7,58.9,30.04,SW,225,2.0,9.0,58,0.00,,,0.00,Wunderground v.1.15,2013-05-03 19:20:00,
2013-05-03 15:21:00,74.9,59.1,30.04,South,188,2.0,2.0,58,0.00,,,0.00,Wunderground v.1.15,2013-05-03 19:21:00,
2013-05-03 15:23:00,75.2,58.9,30.04,South,187,1.0,9.0,57,0.00,,,0.00,Wunderground v.1.15,2013-05-03 19:23:00,
2013-05-03 15:25:00,75.1,57.3,30.04,SSW,196,1.0,9.0,54,0.00,,,0.00,Wunderground v.1.15,2013-05-03 19:25:00,
2013-05-03 15:26:00,74.8,57.0,30.04,SSW,205,2.0,9.0,54,0.00,,,0.00,Wunderground v.1.15,2013-05-03 19:26:00,
2013-05-03 15:28:00,74.4,58.2,30.04,South,190,2.0,9.0,57,0.00,,,0.00,Wunderground v.1.15,2013-05-03 19:28:00,
2013-05-03 15:30:00,74.3,57.6,30.03,SW,214,3.0,9.0,56,0.00,,,0.00,Wunderground v.1.15,2013-05-03 19:30:00,
2013-05-03 15:32:00,74.2,58.0,30.03,NNE,28,3.0,9.0,57,0.00,,,0.00,Wunderground v.1.15,2013-05-03 19:32:00,
2013-05-03 15:34:00,74.4,60.1,30.03,ENE,76,3.0,9.0,61,0.00,,,0.00,Wunderground v.1.15,2013-05-03 19:34:00,
2013-05-03 15:36:00,74.6,61.2,30.03,SE,138,1.0,9.0,63,0.00,,,0.00,Wunderground v.1.15,2013-05-03 19:36:00,
2013-05-03 15:40:00,74.8,60.0,30.03,WNW,298,0.0,9.0,60,0.00,,,0.00,Wunderground v.1.15,2013-05-03 19:40:00,
2013-05-03 15:41:00,74.8,60.0,30.03,ENE,72,0.0,9.0,60,0.00,,,0.00,Wunderground v.1.15,2013-05-03 19:41:00,
2013-05-03 15:43:00,74.8,58.1,30.03,ESE,103,0.0,9.0,56,0.00,,,0.00,Wunderground v.1.15,2013-05-03 19:43:00,
2013-05-03 15:44:00,74.9,58.1,30.03,ESE,105,0.0,9.0,56,0.00,,,0.00,Wunderground v.1.15,2013-05-03 19:44:00,
2013-05-03 15:46:00,74.9,59.1,30.03,SSW,202,0.0,9.0,58,0.00,,,0.00,Wunderground v.1.15,2013-05-03 19:46:00,
2013-05-03 15:48:00,75.1,59.3,30.03,ESE,105,0.0,9.0,58,0.00,,,0.00,Wunderground v.1.15,2013-05-03 19:48:00,
2013-05-03 15:49:00,75.1,59.3,30.03,ESE,105,0.0,9.0,58,0.00,,,0.00,Wunderground v.1.15,2013-05-03 19:49:00,
2013-05-03 15:50:00,75.2,60.4,30.03,SSW,194,0.0,9.0,60,0.00,,,0.00,Wunderground v.1.15,2013-05-03 19:50:00,
2013-05-03 15:51:00,75.3,59.0,30.03,SSW,192,0.0,9.0,57,0.00,,,0.00,Wunderground v.1.15,2013-05-03 19:51:00,
2013-05-03 15:54:00,75.5,60.2,30.03,ENE,71,0.0,9.0,59,0.00,,,0.00,Wunderground v.1.15,2013-05-03 19:54:00,
2013-05-03 15:55:00,75.5,60.2,30.03,SSE,155,0.0,9.0,59,0.00,,,0.00,Wunderground v.1.15,2013-05-03 19:55:00,
2013-05-03 15:58:00,75.3,60.5,30.03,NW,313,0.0,9.0,60,0.00,,,0.00,Wunderground v.1.15,2013-05-03 19:58:00,
2013-05-03 16:01:00,75.1,58.8,30.03,East,94,1.0,1.0,57,0.00,,,0.00,Wunderground v.1.15,2013-05-03 20:01:00,
2013-05-03 16:04:00,75.1,59.8,30.03,SW,234,1.0,9.0,59,0.00,,,0.00,Wunderground v.1.15,2013-05-03 20:04:00,
2013-05-03 16:05:00,75.1,59.8,30.02,NW,304,1.0,9.0,59,0.00,,,0.00,Wunderground v.1.15,2013-05-03 20:05:00,
2013-05-03 16:06:00,75.3,60.5,30.03,NW,311,1.0,9.0,60,0.00,,,0.00,Wunderground v.1.15,2013-05-03 20:06:00,
2013-05-03 16:07:00,75.4,59.6,30.02,WNW,286,1.0,9.0,58,0.00,,,0.00,Wunderground v.1.15,2013-05-03 20:07:00,
2013-05-03 16:09:00,75.7,60.8,30.02,SE,143,1.0,9.0,60,0.00,,,0.00,Wunderground v.1.15,2013-05-03 20:09:00,
2013-05-03 16:11:00,75.8,60.0,30.02,East,84,0.0,9.0,58,0.00,,,0.00,Wunderground v.1.15,2013-05-03 20:11:00,
2013-05-03 16:12:00,75.9,60.1,30.02,SSE,157,1.0,9.0,58,0.00,,,0.00,Wunderground v.1.15,2013-05-03 20:12:00,
2013-05-03 16:13:00,76.0,60.2,30.02,East,84,1.0,9.0,58,0.00,,,0.00,Wunderground v.1.15,2013-05-03 20:13:00,
2013-05-03 16:14:00,76.0,59.7,30.02,South,175,1.0,9.0,57,0.00,,,0.00,Wunderground v.1.15,2013-05-03 20:14:00,
2013-05-03 16:18:00,75.9,58.1,30.02,North,355,1.0,9.0,54,0.00,,,0.00,Wunderground v.1.15,2013-05-03 20:18:00,
2013-05-03 16:19:00,75.9,59.6,30.02,ENE,69,1.0,9.0,57,0.00,,,0.00,Wunderground v.1.15,2013-05-03 20:19:00,
2013-05-03 16:20:00,76.0,60.6,30.02,NNW,347,1.0,9.0,59,0.00,,,0.00,Wunderground v.1.15,2013-05-03 20:20:00,
2013-05-03 16:22:00,76.4,61.5,30.02,NE,46,1.0,9.0,60,0.00,,,0.00,Wunderground v.1.15,2013-05-03 20:22:00,
2013-05-03 16:24:00,76.7,59.8,30.02,SW,225,1.0,9.0,56,0.00,,,0.00,Wunderground v.1.15,2013-05-03 20:24:00,
2013-05-03 16:26:00,77.1,61.2,30.02,East,101,1.0,9.0,58,0.00,,,0.00,Wunderground v.1.15,2013-05-03 20:26:00,
2013-05-03 16:29:00,77.1,59.7,30.02,South,169,0.0,9.0,55,0.00,,,0.00,Wunderground v.1.15,2013-05-03 20:29:00,
2013-05-03 16:31:00,77.2,61.3,30.02,WNW,285,0.0,9.0,58,0.00,,,0.00,Wunderground v.1.15,2013-05-03 20:31:00,
2013-05-03 16:32:00,77.3,61.9,30.02,ESE,111,0.0,9.0,59,0.00,,,0.00,Wunderground v.1.15,2013-05-03 20:32:00,
2013-05-03 16:35:00,77.0,59.6,30.02,South,171,1.0,9.0,55,0.00,,,0.00,Wunderground v.1.15,2013-05-03 20:35:00,
2013-05-03 16:36:00,76.9,58.5,30.02,WSW,238,1.0,9.0,53,0.00,,,0.00,Wunderground v.1.15,2013-05-03 20:36:00,
2013-05-03 16:37:00,76.8,59.9,30.02,SW,218,1.0,9.0,56,0.00,,,0.00,Wunderground v.1.15,2013-05-03 20:37:00,
2013-05-03 16:38:00,76.6,58.7,30.02,WSW,258,1.0,9.0,54,0.00,,,0.00,Wunderground v.1.15,2013-05-03 20:38:00,
2013-05-03 16:39:00,76.5,59.6,30.02,SSW,206,1.0,9.0,56,0.00,,,0.00,Wunderground v.1.15,2013-05-03 20:39:00,
2013-05-03 16:41:00,76.4,58.0,30.02,ENE,77,1.0,1.0,53,0.00,,,0.00,Wunderground v.1.15,2013-05-03 20:41:00,
2013-05-03 16:42:00,76.3,58.4,30.02,ESE,105,1.0,2.0,54,0.00,,,0.00,Wunderground v.1.15,2013-05-03 20:42:00,
2013-05-03 16:44:00,76.2,59.9,30.02,SW,223,1.0,9.0,57,0.00,,,0.00,Wunderground v.1.15,2013-05-03 20:44:00,
2013-05-03 16:45:00,76.2,60.3,30.02,SE,130,1.0,9.0,58,0.00,,,0.00,Wunderground v.1.15,2013-05-03 20:45:00,
2013-05-03 16:47:00,76.2,58.9,30.02,South,184,1.0,9.0,55,0.00,,,0.00,Wunderground v.1.15,2013-05-03 20:47:00,
2013-05-03 16:50:00,76.2,58.3,30.02,ESE,108,1.0,9.0,54,0.00,,,0.00,Wunderground v.1.15,2013-05-03 20:50:00,
2013-05-03 16:51:00,76.2,59.9,30.02,WSW,254,1.0,1.0,57,0.00,,,0.00,Wunderground v.1.15,2013-05-03 20:51:00,
2013-05-03 16:55:00,76.1,58.8,30.02,ESE,112,0.0,9.0,55,0.00,,,0.00,Wunderground v.1.15,2013-05-03 20:55:00,
2013-05-03 16:56:00,76.0,59.2,30.02,East,88,0.0,9.0,56,0.00,,,0.00,Wunderground v.1.15,2013-05-03 20:56:00,
2013-05-03 17:01:00,75.9,60.5,30.02,East,90,0.0,9.0,59,0.00,,,0.00,Wunderground v.1.15,2013-05-03 21:01:00,
2013-05-03 17:02:00,76.0,60.2,30.02,WNW,284,0.0,9.0,58,0.00,,,0.00,Wunderground v.1.15,2013-05-03 21:02:00,
2013-05-03 17:03:00,76.1,59.8,30.02,WSW,254,0.0,9.0,57,0.00,,,0.00,Wunderground v.1.15,2013-05-03 21:03:00,
2013-05-03 17:04:00,76.2,59.9,30.02,South,170,0.0,9.0,57,0.00,,,0.00,Wunderground v.1.15,2013-05-03 21:04:00,
2013-05-03 17:05:00,76.1,59.3,30.01,South,181,0.0,9.0,56,0.00,,,0.00,Wunderground v.1.15,2013-05-03 21:05:00,
2013-05-03 17:08:00,75.9,60.5,30.02,WSW,248,0.0,9.0,59,0.00,,,0.00,Wunderground v.1.15,2013-05-03 21:08:00,
2013-05-03 17:10:00,75.9,60.5,30.02,SSW,211,0.0,9.0,59,0.00,,,0.00,Wunderground v.1.15,2013-05-03 21:10:00,
2013-05-03 17:11:00,75.9,59.6,30.02,East,84,0.0,9.0,57,0.00,,,0.00,Wunderground v.1.15,2013-05-03 21:11:00,
2013-05-03 17:14:00,76.2,59.9,30.01,ESE,115,0.0,9.0,57,0.00,,,0.00,Wunderground v.1.15,2013-05-03 21:14:00,
2013-05-03 17:16:00,76.4,60.0,30.01,East,96,0.0,9.0,57,0.00,,,0.00,Wunderground v.1.15,2013-05-03 21:16:00,
2013-05-03 17:17:00,76.3,58.9,30.01,ESE,114,0.0,9.0,55,0.00,,,0.00,Wunderground v.1.15,2013-05-03 21:17:00,
2013-05-03 17:19:00,76.2,58.3,30.01,ESE,115,0.0,9.0,54,0.00,,,0.00,Wunderground v.1.15,2013-05-03 21:19:00,
2013-05-03 17:22:00,76.0,58.7,30.01,ENE,72,0.0,9.0,55,0.00,,,0.00,Wunderground v.1.15,2013-05-03 21:22:00,
2013-05-03 17:24:00,75.9,59.1,30.01,NNE,24,0.0,9.0,56,0.00,,,0.00,Wunderground v.1.15,2013-05-03 21:24:00,
2013-05-03 17:26:00,75.8,60.0,30.01,SW,236,0.0,9.0,58,0.00,,,0.00,Wunderground v.1.15,2013-05-03 21:26:00,
2013-05-03 17:27:00,75.8,60.0,30.01,NE,44,0.0,9.0,58,0.00,,,0.00,Wunderground v.1.15,2013-05-03 21:27:00,
2013-05-03 17:28:00,75.8,59.0,30.01,SSW,205,0.0,9.0,56,0.00,,,0.00,Wunderground v.1.15,2013-05-03 21:28:00,
2013-05-03 17:30:00,76.0,59.2,30.01,SW,233,0.0,9.0,56,0.00,,,0.00,Wunderground v.1.15,2013-05-03 21:30:00,
2013-05-03 17:32:00,76.2,59.4,30.01,South,175,0.0,9.0,56,0.00,,,0.00,Wunderground v.1.15,2013-05-03 21:32:00,
2013-05-03 17:33:00,76.5,60.6,30.01,SW,234,0.0,9.0,58,0.00,,,0.00,Wunderground v.1.15,2013-05-03 21:33:00,
2013-05-03 17:35:00,76.8,59.9,30.01,SE,128,0.0,9.0,56,0.00,,,0.00,Wunderground v.1.15,2013-05-03 21:35:00,
2013-05-03 17:36:00,76.9,57.4,30.01,SE,133,0.0,9.0,51,0.00,,,0.00,Wunderground v.1.15,2013-05-03 21:36:00,
2013-05-03 17:37:00,76.9,57.9,30.01,ESE,105,0.0,9.0,52,0.00,,,0.00,Wunderground v.1.15,2013-05-03 21:37:00,
2013-05-03 17:39:00,76.9,59.5,30.01,East,85,0.0,9.0,55,0.00,,,0.00,Wunderground v.1.15,2013-05-03 21:39:00,
2013-05-03 17:41:00,76.9,59.5,30.01,East,89,1.0,1.0,55,0.00,,,0.00,Wunderground v.1.15,2013-05-03 21:41:00,
2013-05-03 17:43:00,76.9,60.5,30.01,ESE,103,1.0,9.0,57,0.00,,,0.00,Wunderground v.1.15,2013-05-03 21:43:00,
2013-05-03 17:46:00,76.8,58.4,30.01,ESE,109,1.0,9.0,53,0.00,,,0.00,Wunderground v.1.15,2013-05-03 21:46:00,
2013-05-03 17:47:00,76.7,57.7,30.01,NE,51,1.0,9.0,52,0.00,,,0.00,Wunderground v.1.15,2013-05-03 21:47:00,
2013-05-03 17:48:00,76.5,57.6,30.01,East,86,1.0,9.0,52,0.00,,,0.00,Wunderground v.1.15,2013-05-03 21:48:00,
2013-05-03 17:51:00,76.4,58.0,30.01,ESE,103,1.0,1.0,53,0.00,,,0.00,Wunderground v.1.15,2013-05-03 21:51:00,
2013-05-03 17:53:00,76.2,58.9,30.01,East,96,0.0,9.0,55,0.00,,,0.00,Wunderground v.1.15,2013-05-03 21:53:00,
2013-05-03 17:54:00,76.1,59.3,30.01,ENE,76,0.0,9.0,56,0.00,,,0.00,Wunderground v.1.15,2013-05-03 21:54:00,
2013-05-03 17:57:00,75.7,57.9,30.01,SE,127,0.0,9.0,54,0.00,,,0.00,Wunderground v.1.15,2013-05-03 21:57:00,
2013-05-03 17:59:00,75.2,57.4,30.01,East,89,0.0,9.0,54,0.00,,,0.00,Wunderground v.1.15,2013-05-03 21:59:00,
2013-05-03 18:01:00,74.9,57.6,30.01,SSE,156,0.0,9.0,55,0.00,,,0.00,Wunderground v.1.15,2013-05-03 22:01:00,
2013-05-03 18:03:00,74.4,57.7,30.01,ESE,104,0.0,9.0,56,0.00,,,0.00,Wunderground v.1.15,2013-05-03 22:03:00,
2013-05-03 18:06:00,73.9,57.2,30.01,ESE,115,0.0,9.0,56,0.00,,,0.00,Wunderground v.1.15,2013-05-03 22:06:00,
2013-05-03 18:07:00,73.8,57.1,30.01,ESE,109,0.0,9.0,56,0.00,,,0.00,Wunderground v.1.15,2013-05-03 22:07:00,
2013-05-03 18:08:00,73.7,57.5,30.01,ESE,121,0.0,9.0,57,0.00,,,0.00,Wunderground v.1.15,2013-05-03 22:08:00,
2013-05-03 18:09:00,73.6,57.9,30.01,South,182,0.0,9.0,58,0.00,,,0.00,Wunderground v.1.15,2013-05-03 22:09:00,
2013-05-03 18:12:00,73.4,57.7,30.01,East,96,0.0,9.0,58,0.00,,,0.00,Wunderground v.1.15,2013-05-03 22:12:00,
2013-05-03 18:14:00,73.4,57.7,30.01,ESE,109,0.0,9.0,58,0.00,,,0.00,Wunderground v.1.15,2013-05-03 22:14:00,
2013-05-03 18:16:00,73.3,57.6,30.01,ESE,105,0.0,9.0,58,0.00,,,0.00,Wunderground v.1.15,2013-05-03 22:16:00,
2013-05-03 18:18:00,73.1,56.5,30.01,ESE,121,0.0,9.0,56,0.00,,,0.00,Wunderground v.1.15,2013-05-03 22:18:00,
2013-05-03 18:19:00,73.1,57.0,30.01,ENE,70,0.0,9.0,57,0.00,,,0.00,Wunderground v.1.15,2013-05-03 22:19:00,
2013-05-03 18:20:00,73.0,56.4,30.01,ESE,112,0.0,9.0,56,0.00,,,0.00,Wunderground v.1.15,2013-05-03 22:20:00,
2013-05-03 18:22:00,72.9,56.8,30.01,ENE,78,0.0,9.0,57,0.00,,,0.00,Wunderground v.1.15,2013-05-03 22:22:00,
2013-05-03 18:24:00,72.8,56.2,30.01,South,186,0.0,9.0,56,0.00,,,0.00,Wunderground v.1.15,2013-05-03 22:24:00,
2013-05-03 18:27:00,72.8,55.7,30.01,ENE,65,0.0,9.0,55,0.00,,,0.00,Wunderground v.1.15,2013-05-03 22:27:00,
2013-05-03 18:29:00,72.7,55.6,30.01,SE,140,0.0,9.0,55,0.00,,,0.00,Wunderground v.1.15,2013-05-03 22:29:00,
2013-05-03 18:33:00,72.5,56.4,30.01,ESE,117,0.0,9.0,57,0.00,,,0.00,Wunderground v.1.15,2013-05-03 22:33:00,
2013-05-03 18:34:00,72.5,56.9,30.01,South,169,0.0,9.0,58,0.00,,,0.00,Wunderground v.1.15,2013-05-03 22:34:00,
2013-05-03 18:35:00,72.4,56.8,30.01,ESE,113,0.0,9.0,58,0.00,,,0.00,Wunderground v.1.15,2013-05-03 22:35:00,
2013-05-03 18:36:00,72.4,56.3,30.01,ESE,115,0.0,9.0,57,0.00,,,0.00,Wunderground v.1.15,2013-05-03 22:36:00,
2013-05-03 18:41:00,72.0,55.4,30.01,South,184,0.0,9.0,56,0.00,,,0.00,Wunderground v.1.15,2013-05-03 22:41:00,
2013-05-03 18:42:00,72.0,55.9,30.01,ESE,113,0.0,9.0,57,0.00,,,0.00,Wunderground v.1.15,2013-05-03 22:42:00,
2013-05-03 18:43:00,71.9,55.3,30.01,East,94,0.0,9.0,56,0.00,,,0.00,Wunderground v.1.15,2013-05-03 22:43:00,
2013-05-03 18:44:00,71.9,55.8,30.01,ESE,121,0.0,9.0,57,0.00,,,0.00,Wunderground v.1.15,2013-05-03 22:44:00,
2013-05-03 18:45:00,71.9,56.8,30.01,SE,141,0.0,9.0,59,0.00,,,0.00,Wunderground v.1.15,2013-05-03 22:45:00,
2013-05-03 18:46:00,71.8,55.3,30.01,NNW,347,0.0,9.0,56,0.00,,,0.00,Wunderground v.1.15,2013-05-03 22:46:00,
2013-05-03 18:47:00,71.7,55.2,30.01,SSE,150,0.0,9.0,56,0.00,,,0.00,Wunderground v.1.15,2013-05-03 22:47:00,
2013-05-03 18:50:00,71.6,54.1,30.01,SE,134,0.0,9.0,54,0.00,,,0.00,Wunderground v.1.15,2013-05-03 22:50:00,
2013-05-03 18:51:00,71.6,52.5,30.01,SSE,155,0.0,9.0,51,0.00,,,0.00,Wunderground v.1.15,2013-05-03 22:51:00,
2013-05-03 18:54:00,71.4,52.9,30.01,East,88,0.0,9.0,52,0.00,,,0.00,Wunderground v.1.15,2013-05-03 22:54:00,
2013-05-03 18:56:00,71.2,52.7,30.01,South,180,1.0,9.0,52,0.00,,,0.00,Wunderground v.1.15,2013-05-03 22:56:00,
2013-05-03 18:57:00,71.2,52.1,30.01,SE,128,1.0,9.0,51,0.00,,,0.00,Wunderground v.1.15,2013-05-03 22:57:00,
2013-05-03 19:01:00,70.9,49.7,30.01,ESE,113,1.0,1.0,47,0.00,,,0.00,Wunderground v.1.15,2013-05-03 23:01:00,
2013-05-03 19:02:00,70.8,50.1,30.01,SE,129,1.0,9.0,48,0.00,,,0.00,Wunderground v.1.15,2013-05-03 23:02:00,
2013-05-03 19:03:00,70.8,49.6,30.01,East,98,1.0,9.0,47,0.00,,,0.00,Wunderground v.1.15,2013-05-03 23:03:00,
2013-05-03 19:05:00,70.6,50.5,30.01,SE,130,1.0,9.0,49,0.00,,,0.00,Wunderground v.1.15,2013-05-03 23:05:00,
2013-05-03 19:07:00,70.5,49.3,30.01,East,91,1.0,9.0,47,0.00,,,0.00,Wunderground v.1.15,2013-05-03 23:07:00,
2013-05-03 19:08:00,70.4,50.3,30.01,SE,134,1.0,9.0,49,0.00,,,0.00,Wunderground v.1.15,2013-05-03 23:08:00,
2013-05-03 19:10:00,70.4,49.8,30.01,SSW,207,0.0,9.0,48,0.00,,,0.00,Wunderground v.1.15,2013-05-03 23:10:00,
2013-05-03 19:11:00,70.4,49.8,30.01,ESE,112,0.0,9.0,48,0.00,,,0.00,Wunderground v.1.15,2013-05-03 23:11:00,
2013-05-03 19:12:00,70.3,50.2,30.01,ENE,67,0.0,9.0,49,0.00,,,0.00,Wunderground v.1.15,2013-05-03 23:12:00,
2013-05-03 19:15:00,70.2,49.0,30.01,ESE,123,0.0,9.0,47,0.00,,,0.00,Wunderground v.1.15,2013-05-03 23:15:00,
2013-05-03 19:16:00,70.1,49.5,30.01,East,87,0.0,9.0,48,0.00,,,0.00,Wunderground v.1.15,2013-05-03 23:16:00,
2013-05-03 19:18:00,70.0,49.4,30.01,SE,130,0.0,9.0,48,0.00,,,0.00,Wunderground v.1.15,2013-05-03 23:18:00,
2013-05-03 19:19:00,70.0,48.8,30.01,SSE,150,0.0,9.0,47,0.00,,,0.00,Wunderground v.1.15,2013-05-03 23:19:00,
2013-05-03 19:24:00,69.7,49.1,30.01,SE,132,0.0,9.0,48,0.00,,,0.00,Wunderground v.1.15,2013-05-03 23:24:00,
2013-05-03 19:25:00,69.7,49.1,30.01,ESE,121,0.0,9.0,48,0.00,,,0.00,Wunderground v.1.15,2013-05-03 23:25:00,
2013-05-03 19:26:00,69.6,47.9,30.01,ENE,76,0.0,9.0,46,0.00,,,0.00,Wunderground v.1.15,2013-05-03 23:26:00,
2013-05-03 19:27:00,69.6,47.3,30.01,SW,216,0.0,9.0,45,0.00,,,0.00,Wunderground v.1.15,2013-05-03 23:27:00,
2013-05-03 19:31:00,69.4,47.7,30.01,SSE,163,0.0,9.0,46,0.00,,,0.00,Wunderground v.1.15,2013-05-03 23:31:00,
2013-05-03 19:32:00,69.4,47.1,30.01,SSE,157,0.0,9.0,45,0.00,,,0.00,Wunderground v.1.15,2013-05-03 23:32:00,
2013-05-03 19:34:00,69.4,47.7,30.01,ENE,78,0.0,9.0,46,0.00,,,0.00,Wunderground v.1.15,2013-05-03 23:34:00,
2013-05-03 19:35:00,69.4,48.9,30.01,NE,50,0.0,9.0,48,0.00,,,0.00,Wunderground v.1.15,2013-05-03 23:35:00,
2013-05-03 19:38:00,69.2,48.1,30.01,East,97,0.0,9.0,47,0.00,,,0.00,Wunderground v.1.15,2013-05-03 23:38:00,
2013-05-03 19:39:00,69.2,47.5,30.01,NE,49,0.0,9.0,46,0.00,,,0.00,Wunderground v.1.15,2013-05-03 23:39:00,
2013-05-03 19:41:00,69.0,47.9,30.02,SSW,203,0.0,9.0,47,0.00,,,0.00,Wunderground v.1.15,2013-05-03 23:41:00,
2013-05-03 19:44:00,68.9,47.8,30.01,SE,126,0.0,9.0,47,0.00,,,0.00,Wunderground v.1.15,2013-05-03 23:44:00,
2013-05-03 19:46:00,68.8,47.2,30.01,ESE,114,0.0,9.0,46,0.00,,,0.00,Wunderground v.1.15,2013-05-03 23:46:00,
2013-05-03 19:50:00,68.7,45.9,30.02,East,96,0.0,9.0,44,0.00,,,0.00,Wunderground v.1.15,2013-05-03 23:50:00,
2013-05-03 19:51:00,68.6,46.4,30.02,ESE,111,0.0,9.0,45,0.00,,,0.00,Wunderground v.1.15,2013-05-03 23:51:00,
2013-05-03 19:53:00,68.6,47.6,30.02,SE,128,0.0,9.0,47,0.00,,,0.00,Wunderground v.1.15,2013-05-03 23:53:00,
2013-05-03 19:56:00,68.5,46.3,30.02,ESE,113,0.0,9.0,45,0.00,,,0.00,Wunderground v.1.15,2013-05-03 23:56:00,
2013-05-03 19:58:00,68.4,46.2,30.02,East,98,0.0,9.0,45,0.00,,,0.00,Wunderground v.1.15,2013-05-03 23:58:00,
2013-05-03 19:59:00,68.5,46.3,30.02,East,98,0.0,9.0,45,0.00,,,0.00,Wunderground v.1.15,2013-05-03 23:59:00,
2013-05-03 20:01:00,68.4,46.8,30.02,ESE,112,0.0,9.0,46,0.00,,,0.00,Wunderground v.1.15,2013-05-04 00:01:00,
2013-05-03 20:03:00,68.3,46.1,30.02,SSW,197,0.0,9.0,45,0.00,,,0.00,Wunderground v.1.15,2013-05-04 00:03:00,
2013-05-03 20:06:00,68.2,47.2,30.02,ESE,115,0.0,9.0,47,0.00,,,0.00,Wunderground v.1.15,2013-05-04 00:06:00,
2013-05-03 20:09:00,68.0,45.3,30.02,ESE,106,0.0,9.0,44,0.00,,,0.00,Wunderground v.1.15,2013-05-04 00:09:00,
2013-05-03 20:11:00,68.0,45.9,30.02,ESE,108,0.0,9.0,45,0.00,,,0.00,Wunderground v.1.15,2013-05-04 00:11:00,
2013-05-03 20:12:00,68.0,45.9,30.02,West,265,0.0,9.0,45,0.00,,,0.00,Wunderground v.1.15,2013-05-04 00:12:00,
2013-05-03 20:15:00,67.9,45.8,30.02,ESE,120,0.0,9.0,45,0.00,,,0.00,Wunderground v.1.15,2013-05-04 00:15:00,
2013-05-03 20:16:00,67.8,45.1,30.02,ESE,110,0.0,9.0,44,0.00,,,0.00,Wunderground v.1.15,2013-05-04 00:16:00,
2013-05-03 20:17:00,67.8,45.1,30.02,ESE,104,0.0,9.0,44,0.00,,,0.00,Wunderground v.1.15,2013-05-04 00:17:00,
2013-05-03 20:20:00,67.7,45.6,30.02,SE,126,0.0,9.0,45,0.00,,,0.00,Wunderground v.1.15,2013-05-04 00:20:00,
2013-05-03 20:22:00,67.6,45.5,30.02,ESE,117,0.0,9.0,45,0.00,,,0.00,Wunderground v.1.15,2013-05-04 00:22:00,
2013-05-03 20:25:00,67.5,44.8,30.02,ESE,107,0.0,9.0,44,0.00,,,0.00,Wunderground v.1.15,2013-05-04 00:25:00,
2013-05-03 20:26:00,67.5,46.0,30.02,ESE,109,0.0,9.0,46,0.00,,,0.00,Wunderground v.1.15,2013-05-04 00:26:00,
2013-05-03 20:27:00,67.4,45.9,30.02,SSE,168,0.0,9.0,46,0.00,,,0.00,Wunderground v.1.15,2013-05-04 00:27:00,
2013-05-03 20:29:00,67.3,45.2,30.02,SSE,168,0.0,9.0,45,0.00,,,0.00,Wunderground v.1.15,2013-05-04 00:29:00,
2013-05-03 20:30:00,67.3,45.2,30.02,SE,133,0.0,9.0,45,0.00,,,0.00,Wunderground v.1.15,2013-05-04 00:30:00,
2013-05-03 20:32:00,67.2,43.9,30.02,SSE,163,0.0,9.0,43,0.00,,,0.00,Wunderground v.1.15,2013-05-04 00:32:00,
2013-05-03 20:33:00,67.2,43.9,30.02,West,260,0.0,9.0,43,0.00,,,0.00,Wunderground v.1.15,2013-05-04 00:33:00,
2013-05-03 20:34:00,67.2,44.5,30.02,South,189,0.0,9.0,44,0.00,,,0.00,Wunderground v.1.15,2013-05-04 00:34:00,
2013-05-03 20:35:00,67.2,45.1,30.03,SE,126,0.0,9.0,45,0.00,,,0.00,Wunderground v.1.15,2013-05-04 00:35:00,
2013-05-03 20:38:00,67.1,43.8,30.02,SSE,147,0.0,9.0,43,0.00,,,0.00,Wunderground v.1.15,2013-05-04 00:38:00,
2013-05-03 20:39:00,67.1,44.4,30.02,SSE,165,0.0,9.0,44,0.00,,,0.00,Wunderground v.1.15,2013-05-04 00:39:00,
2013-05-03 20:41:00,67.1,44.4,30.02,ESE,117,0.0,9.0,44,0.00,,,0.00,Wunderground v.1.15,2013-05-04 00:41:00,
2013-05-03 20:42:00,67.1,43.8,30.02,East,92,0.0,9.0,43,0.00,,,0.00,Wunderground v.1.15,2013-05-04 00:42:00,
2013-05-03 20:45:00,67.1,45.0,30.03,SE,132,0.0,9.0,45,0.00,,,0.00,Wunderground v.1.15,2013-05-04 00:45:00,
2013-05-03 20:48:00,67.0,44.4,30.02,East,94,0.0,9.0,44,0.00,,,0.00,Wunderground v.1.15,2013-05-04 00:48:00,
2013-05-03 20:49:00,67.0,44.9,30.02,ESE,121,0.0,9.0,45,0.00,,,0.00,Wunderground v.1.15,2013-05-04 00:49:00,
2013-05-03 20:52:00,66.7,44.1,30.02,East,94,0.0,9.0,44,0.00,,,0.00,Wunderground v.1.15,2013-05-04 00:52:00,
2013-05-03 20:54:00,66.6,45.2,30.02,West,275,0.0,9.0,46,0.00,,,0.00,Wunderground v.1.15,2013-05-04 00:54:00,
2013-05-03 20:55:00,66.6,45.2,30.02,West,280,0.0,9.0,46,0.00,,,0.00,Wunderground v.1.15,2013-05-04 00:55:00,
2013-05-03 20:57:00,66.4,44.4,30.02,ESE,109,0.0,9.0,45,0.00,,,0.00,Wunderground v.1.15,2013-05-04 00:57:00,
2013-05-03 20:58:00,66.3,44.3,30.02,NE,49,0.0,9.0,45,0.00,,,0.00,Wunderground v.1.15,2013-05-04 00:58:00,
2013-05-03 21:02:00,66.2,44.8,30.02,South,181,0.0,9.0,46,0.00,,,0.00,Wunderground v.1.15,2013-05-04 01:02:00,
2013-05-03 21:03:00,66.2,43.0,30.02,ENE,70,0.0,9.0,43,0.00,,,0.00,Wunderground v.1.15,2013-05-04 01:03:00,
2013-05-03 21:04:00,66.2,43.6,30.03,SE,140,0.0,9.0,44,0.00,,,0.00,Wunderground v.1.15,2013-05-04 01:04:00,
2013-05-03 21:08:00,66.1,44.1,30.02,East,93,0.0,9.0,45,0.00,,,0.00,Wunderground v.1.15,2013-05-04 01:08:00,
2013-05-03 21:09:00,66.1,44.7,30.03,ESE,113,0.0,9.0,46,0.00,,,0.00,Wunderground v.1.15,2013-05-04 01:09:00,
2013-05-03 21:10:00,66.1,44.1,30.03,ESE,115,0.0,9.0,45,0.00,,,0.00,Wunderground v.1.15,2013-05-04 01:10:00,
2013-05-03 21:12:00,66.0,44.0,30.03,SSE,150,0.0,9.0,45,0.00,,,0.00,Wunderground v.1.15,2013-05-04 01:12:00,
2013-05-03 21:13:00,66.0,44.6,30.03,SE,140,0.0,9.0,46,0.00,,,0.00,Wunderground v.1.15,2013-05-04 01:13:00,
2013-05-03 21:16:00,66.0,44.0,30.03,SE,128,0.0,9.0,45,0.00,,,0.00,Wunderground v.1.15,2013-05-04 01:16:00,
2013-05-03 21:18:00,65.9,43.4,30.03,ESE,105,0.0,9.0,44,0.00,,,0.00,Wunderground v.1.15,2013-05-04 01:18:00,
2013-05-03 21:21:00,65.9,43.9,30.03,ESE,121,0.0,9.0,45,0.00,,,0.00,Wunderground v.1.15,2013-05-04 01:21:00,
2013-05-03 21:22:00,65.9,43.4,30.03,ESE,113,0.0,9.0,44,0.00,,,0.00,Wunderground v.1.15,2013-05-04 01:22:00,
2013-05-03 21:26:00,65.9,43.4,30.03,East,99,0.0,9.0,44,0.00,,,0.00,Wunderground v.1.15,2013-05-04 01:26:00,
2013-05-03 21:27:00,65.8,43.3,30.03,East,99,0.0,9.0,44,0.00,,,0.00,Wunderground v.1.15,2013-05-04 01:27:00,
2013-05-03 21:30:00,65.9,43.4,30.03,SE,140,0.0,9.0,44,0.00,,,0.00,Wunderground v.1.15,2013-05-04 01:30:00,
2013-05-03 21:31:00,65.9,42.8,30.03,SE,132,0.0,9.0,43,0.00,,,0.00,Wunderground v.1.15,2013-05-04 01:31:00,
2013-05-03 21:33:00,65.9,44.5,30.03,SE,126,0.0,9.0,46,0.00,,,0.00,Wunderground v.1.15,2013-05-04 01:33:00,
2013-05-03 21:35:00,65.9,45.1,30.03,South,187,0.0,9.0,47,0.00,,,0.00,Wunderground v.1.15,2013-05-04 01:35:00,
2013-05-03 21:36:00,65.9,43.9,30.03,SE,139,0.0,9.0,45,0.00,,,0.00,Wunderground v.1.15,2013-05-04 01:36:00,
2013-05-03 21:37:00,65.9,44.5,30.03,SSE,150,0.0,9.0,46,0.00,,,0.00,Wunderground v.1.15,2013-05-04 01:37:00,
2013-05-03 21:41:00,65.7,44.3,30.04,SE,128,0.0,9.0,46,0.00,,,0.00,Wunderground v.1.15,2013-05-04 01:41:00,
2013-05-03 21:42:00,65.6,44.3,30.04,SE,125,0.0,9.0,46,0.00,,,0.00,Wunderground v.1.15,2013-05-04 01:42:00,
2013-05-03 21:45:00,65.5,43.6,30.04,SE,131,0.0,9.0,45,0.00,,,0.00,Wunderground v.1.15,2013-05-04 01:45:00,
2013-05-03 21:46:00,65.5,44.2,30.04,East,88,0.0,9.0,46,0.00,,,0.00,Wunderground v.1.15,2013-05-04 01:46:00,
2013-05-03 21:47:00,65.4,44.6,30.04,ESE,111,0.0,9.0,47,0.00,,,0.00,Wunderground v.1.15,2013-05-04 01:47:00,
2013-05-03 21:48:00,65.4,44.6,30.04,ENE,72,0.0,9.0,47,0.00,,,0.00,Wunderground v.1.15,2013-05-04 01:48:00,
2013-05-03 21:50:00,65.3,42.8,30.04,ESE,105,0.0,9.0,44,0.00,,,0.00,Wunderground v.1.15,2013-05-04 01:50:00,
2013-05-03 21:53:00,65.3,42.8,30.04,SE,144,0.0,9.0,44,0.00,,,0.00,Wunderground v.1.15,2013-05-04 01:53:00,
2013-05-03 21:54:00,65.3,44.5,30.04,SE,130,0.0,9.0,47,0.00,,,0.00,Wunderground v.1.15,2013-05-04 01:54:00,
2013-05-03 21:55:00,65.3,44.0,30.04,SSE,150,0.0,9.0,46,0.00,,,0.00,Wunderground v.1.15,2013-05-04 01:55:00,
2013-05-03 21:56:00,65.3,44.5,30.04,ESE,115,0.0,9.0,47,0.00,,,0.00,Wunderground v.1.15,2013-05-04 01:56:00,
2013-05-03 22:01:00,65.3,44.0,30.04,East,96,0.0,9.0,46,0.00,,,0.00,Wunderground v.1.15,2013-05-04 02:01:00,
2013-05-03 22:02:00,65.3,43.4,30.04,East,96,0.0,9.0,45,0.00,,,0.00,Wunderground v.1.15,2013-05-04 02:02:00,
2013-05-03 22:05:00,65.2,43.3,30.04,East,80,0.0,9.0,45,0.00,,,0.00,Wunderground v.1.15,2013-05-04 02:05:00,
2013-05-03 22:08:00,65.3,43.4,30.04,South,178,0.0,9.0,45,0.00,,,0.00,Wunderground v.1.15,2013-05-04 02:08:00,
2013-05-03 22:11:00,65.2,43.3,30.04,SE,130,0.0,9.0,45,0.00,,,0.00,Wunderground v.1.15,2013-05-04 02:11:00,
2013-05-03 22:12:00,65.2,43.3,30.04,NE,44,0.0,9.0,45,0.00,,,0.00,Wunderground v.1.15,2013-05-04 02:12:00,
2013-05-03 22:14:00,65.1,43.8,30.04,ESE,105,0.0,9.0,46,0.00,,,0.00,Wunderground v.1.15,2013-05-04 02:14:00,
2013-05-03 22:15:00,65.1,44.4,30.04,SSE,159,0.0,9.0,47,0.00,,,0.00,Wunderground v.1.15,2013-05-04 02:15:00,
2013-05-03 22:16:00,65.1,43.2,30.04,SE,144,0.0,9.0,45,0.00,,,0.00,Wunderground v.1.15,2013-05-04 02:16:00,
2013-05-03 22:19:00,65.0,44.3,30.04,SSW,204,0.0,9.0,47,0.00,,,0.00,Wunderground v.1.15,2013-05-04 02:19:00,
2013-05-03 22:21:00,64.9,43.6,30.04,SSW,204,0.0,9.0,46,0.00,,,0.00,Wunderground v.1.15,2013-05-04 02:21:00,
2013-05-03 22:22:00,64.9,43.6,30.04,SSW,204,0.0,9.0,46,0.00,,,0.00,Wunderground v.1.15,2013-05-04 02:22:00,
2013-05-03 22:23:00,64.8,43.5,30.04,SSW,204,0.0,9.0,46,0.00,,,0.00,Wunderground v.1.15,2013-05-04 02:23:00,
2013-05-03 22:26:00,64.7,44.0,30.05,ESE,121,0.0,9.0,47,0.00,,,0.00,Wunderground v.1.15,2013-05-04 02:26:00,
2013-05-03 22:27:00,64.7,44.5,30.04,East,96,0.0,9.0,48,0.00,,,0.00,Wunderground v.1.15,2013-05-04 02:27:00,
2013-05-03 22:28:00,64.7,45.1,30.04,SE,130,0.0,9.0,49,0.00,,,0.00,Wunderground v.1.15,2013-05-04 02:28:00,
2013-05-03 22:31:00,64.5,43.8,30.04,East,90,0.0,9.0,47,0.00,,,0.00,Wunderground v.1.15,2013-05-04 02:31:00,
2013-05-03 22:32:00,64.5,44.4,30.05,SSW,210,0.0,9.0,48,0.00,,,0.00,Wunderground v.1.15,2013-05-04 02:32:00,
2013-05-03 22:35:00,64.5,44.9,30.05,East,79,0.0,9.0,49,0.00,,,0.00,Wunderground v.1.15,2013-05-04 02:35:00,
2013-05-03 22:37:00,64.5,43.3,30.04,East,97,0.0,9.0,46,0.00,,,0.00,Wunderground v.1.15,2013-05-04 02:37:00,
2013-05-03 22:38:00,64.5,43.3,30.04,South,191,0.0,9.0,46,0.00,,,0.00,Wunderground v.1.15,2013-05-04 02:38:00,
2013-05-03 22:42:00,64.8,45.2,30.04,ENE,78,0.0,9.0,49,0.00,,,0.00,Wunderground v.1.15,2013-05-04 02:42:00,
2013-05-03 22:43:00,64.7,45.1,30.05,SSW,195,0.0,9.0,49,0.00,,,0.00,Wunderground v.1.15,2013-05-04 02:43:00,
2013-05-03 22:44:00,64.7,45.1,30.05,SSW,195,0.0,9.0,49,0.00,,,0.00,Wunderground v.1.15,2013-05-04 02:44:00,
2013-05-03 22:49:00,64.5,44.9,30.05,NNW,345,0.0,9.0,49,0.00,,,0.00,Wunderground v.1.15,2013-05-04 02:49:00,
2013-05-03 22:51:00,64.5,44.4,30.04,SE,137,0.0,9.0,48,0.00,,,0.00,Wunderground v.1.15,2013-05-04 02:51:00,
2013-05-03 22:52:00,64.5,44.9,30.04,NE,53,0.0,9.0,49,0.00,,,0.00,Wunderground v.1.15,2013-05-04 02:52:00,
2013-05-03 22:53:00,64.4,44.8,30.04,NW,309,0.0,9.0,49,0.00,,,0.00,Wunderground v.1.15,2013-05-04 02:53:00,
2013-05-03 22:56:00,64.4,43.7,30.04,SSW,194,0.0,9.0,47,0.00,,,0.00,Wunderground v.1.15,2013-05-04 02:56:00,
2013-05-03 22:57:00,64.3,44.2,30.04,South,169,0.0,9.0,48,0.00,,,0.00,Wunderground v.1.15,2013-05-04 02:57:00,
2013-05-03 22:59:00,64.3,44.7,30.04,SSE,151,0.0,9.0,49,0.00,,,0.00,Wunderground v.1.15,2013-05-04 02:59:00,
2013-05-03 23:01:00,64.2,44.6,30.04,SSE,155,0.0,9.0,49,0.00,,,0.00,Wunderground v.1.15,2013-05-04 03:01:00,
2013-05-03 23:02:00,64.3,44.2,30.04,SE,124,0.0,9.0,48,0.00,,,0.00,Wunderground v.1.15,2013-05-04 03:02:00,
2013-05-03 23:04:00,64.2,44.1,30.04,North,355,0.0,9.0,48,0.00,,,0.00,Wunderground v.1.15,2013-05-04 03:04:00,
2013-05-03 23:05:00,64.2,44.1,30.04,NE,34,0.0,9.0,48,0.00,,,0.00,Wunderground v.1.15,2013-05-04 03:05:00,
2013-05-03 23:09:00,64.0,43.9,30.04,West,273,0.0,9.0,48,0.00,,,0.00,Wunderground v.1.15,2013-05-04 03:09:00,
2013-05-03 23:10:00,64.0,43.4,30.04,West,274,0.0,9.0,47,0.00,,,0.00,Wunderground v.1.15,2013-05-04 03:10:00,
2013-05-03 23:11:00,64.0,43.9,30.04,WNW,286,0.0,9.0,48,0.00,,,0.00,Wunderground v.1.15,2013-05-04 03:11:00,
2013-05-03 23:12:00,63.9,43.8,30.04,SSE,160,0.0,9.0,48,0.00,,,0.00,Wunderground v.1.15,2013-05-04 03:12:00,
2013-05-03 23:17:00,63.7,43.6,30.04,SE,141,0.0,9.0,48,0.00,,,0.00,Wunderground v.1.15,2013-05-04 03:17:00,
2013-05-03 23:18:00,63.7,44.7,30.04,SE,141,0.0,9.0,50,0.00,,,0.00,Wunderground v.1.15,2013-05-04 03:18:00,
2013-05-03 23:23:00,63.5,44.0,30.04,WSW,244,0.0,9.0,49,0.00,,,0.00,Wunderground v.1.15,2013-05-04 03:23:00,
2013-05-03 23:24:00,63.5,44.0,30.04,WSW,244,0.0,9.0,49,0.00,,,0.00,Wunderground v.1.15,2013-05-04 03:24:00,
2013-05-03 23:25:00,63.4,43.9,30.04,WSW,244,0.0,9.0,49,0.00,,,0.00,Wunderground v.1.15,2013-05-04 03:25:00,
2013-05-03 23:26:00,63.4,43.4,30.04,East,91,0.0,9.0,48,0.00,,,0.00,Wunderground v.1.15,2013-05-04 03:26:00,
2013-05-03 23:28:00,63.3,43.8,30.04,SE,135,0.0,9.0,49,0.00,,,0.00,Wunderground v.1.15,2013-05-04 03:28:00,
2013-05-03 23:29:00,63.3,44.9,30.04,SE,135,0.0,9.0,51,0.00,,,0.00,Wunderground v.1.15,2013-05-04 03:29:00,
2013-05-03 23:30:00,63.3,44.9,30.04,ENE,69,0.0,9.0,51,0.00,,,0.00,Wunderground v.1.15,2013-05-04 03:30:00,
2013-05-03 23:32:00,63.2,44.2,30.04,NW,311,0.0,9.0,50,0.00,,,0.00,Wunderground v.1.15,2013-05-04 03:32:00,
2013-05-03 23:33:00,63.2,45.3,30.04,ESE,102,0.0,9.0,52,0.00,,,0.00,Wunderground v.1.15,2013-05-04 03:33:00,
2013-05-03 23:35:00,63.1,44.2,30.04,SE,144,0.0,9.0,50,0.00,,,0.00,Wunderground v.1.15,2013-05-04 03:35:00,
2013-05-03 23:39:00,63.1,44.2,30.04,SSE,164,0.0,9.0,50,0.00,,,0.00,Wunderground v.1.15,2013-05-04 03:39:00,
2013-05-03 23:41:00,63.1,44.7,30.04,SE,126,0.0,9.0,51,0.00,,,0.00,Wunderground v.1.15,2013-05-04 03:41:00,
2013-05-03 23:42:00,63.1,44.2,30.05,SE,126,0.0,9.0,50,0.00,,,0.00,Wunderground v.1.15,2013-05-04 03:42:00,
2013-05-03 23:44:00,63.0,44.1,30.04,ESE,112,0.0,9.0,50,0.00,,,0.00,Wunderground v.1.15,2013-05-04 03:44:00,
2013-05-03 23:46:00,63.0,44.1,30.04,SSW,195,0.0,9.0,50,0.00,,,0.00,Wunderground v.1.15,2013-05-04 03:46:00,
2013-05-03 23:48:00,63.0,44.1,30.04,ESE,111,0.0,9.0,50,0.00,,,0.00,Wunderground v.1.15,2013-05-04 03:48:00,
2013-05-03 23:49:00,63.0,44.1,30.04,South,171,0.0,9.0,50,0.00,,,0.00,Wunderground v.1.15,2013-05-04 03:49:00,
2013-05-03 23:52:00,63.0,43.0,30.04,SE,142,0.0,9.0,48,0.00,,,0.00,Wunderground v.1.15,2013-05-04 03:52:00,
2013-05-03 23:53:00,63.0,43.0,30.04,East,98,0.0,9.0,48,0.00,,,0.00,Wunderground v.1.15,2013-05-04 03:53:00,
2013-05-03 23:58:00,63.1,43.6,30.04,SSE,155,0.0,9.0,49,0.00,,,0.00,Wunderground v.1.15,2013-05-04 03:58:00,
2013-05-03 23:59:00,63.1,43.6,30.04,ESE,117,0.0,9.0,49,0.00,,,0.00,Wunderground v.1.15,2013-05-04 03:59:00,